APPOWX Weather Reports


time (UTC)temp
C
wind
direction
speed
KPH
gust
KPH
rain 1hr
cm
rain 24hr
cm
rain mn
cm
humidity
%
barometer
mb
20260502130734 11 0 0.0 0.0 0.00 0.00 0.00 62 1016.2
20260502130634 11 0 0.0 1.6 0.00 0.00 0.00 64 1016.1
20260502130535 11 67 0.0 3.2 0.00 0.00 0.00 64 1016.3
20260502130434 11 46 0.0 3.2 0.00 0.00 0.00 65 1016.3
20260502130334 11 0 0.0 0.0 0.00 0.00 0.00 66 1016.3
20260502130234 11 0 0.0 0.0 0.00 0.00 0.00 67 1016.3
20260502130133 11 0 0.0 0.0 0.00 0.00 0.00 66 1016.4
20260502123728 11 0 0.0 0.0 0.00 0.00 0.00 69 1016.2
20260502123628 11 0 0.0 1.6 0.00 0.00 0.00 67 1016.2
20260502123528 11 71 1.6 1.6 0.00 0.00 0.00 68 1016.2
20260502123428 11 0 0.0 0.0 0.00 0.00 0.00 68 1016.4
20260502123327 11 0 0.0 3.2 0.00 0.00 0.00 68 1016.2
20260502123228 11 0 0.0 0.0 0.00 0.00 0.00 69 1016.3
20260502123128 11 0 0.0 0.0 0.00 0.00 0.00 71 1016.3
20260502123027 11 0 0.0 0.0 0.00 0.00 0.00 73 1016.2
20260502122927 11 0 0.0 1.6 0.00 0.00 0.00 73 1016.3
20260502122827 11 0 0.0 1.6 0.00 0.00 0.00 74 1016.3
20260502122727 11 57 1.6 1.6 0.00 0.00 0.00 75 1016.1
20260502122626 10 0 0.0 0.0 0.00 0.00 0.00 79 1016.1
20260502122526 10 0 0.0 0.0 0.00 0.00 0.00 78 1016.4
20260502122426 10 0 0.0 0.0 0.00 0.00 0.00 77 1016.1
20260502122326 10 0 0.0 0.0 0.00 0.00 0.00 77 1016.2
20260502122226 10 0 0.0 0.0 0.00 0.00 0.00 79 1015.9
20260502122126 10 0 0.0 0.0 0.00 0.00 0.00 79 1016.1
20260502122025 10 0 0.0 0.0 0.00 0.00 0.00 79 1016.1
20260502121924 10 0 0.0 0.0 0.00 0.00 0.00 79 1016.2
20260502121824 10 0 0.0 0.0 0.00 0.00 0.00 79 1016.0
20260502121724 10 0 0.0 0.0 0.00 0.00 0.00 79 1016.1
20260502121624 10 0 0.0 0.0 0.00 0.00 0.00 80 1015.9
20260502121523 10 0 0.0 0.0 0.00 0.00 0.00 80 1015.9
20260502121423 10 0 0.0 0.0 0.00 0.00 0.00 80 1016.0
20260502121323 10 0 0.0 0.0 0.00 0.00 0.00 80 1015.9
20260502121222 10 0 0.0 0.0 0.00 0.00 0.00 79 1015.9
20260502121122 10 0 0.0 0.0 0.00 0.00 0.00 80 1015.8
20260502121021 10 0 0.0 0.0 0.00 0.00 0.00 80 1015.8
20260502120921 10 0 0.0 0.0 0.00 0.00 0.00 81 1015.9
20260502120821 10 0 0.0 0.0 0.00 0.00 0.00 81 1015.7
20260502120722 10 0 0.0 0.0 0.00 0.00 0.00 81 1015.8
20260502120622 10 0 0.0 0.0 0.00 0.00 0.00 81 1015.7
20260502120520 10 0 0.0 0.0 0.00 0.00 0.00 81 1015.7
20260502120420 10 0 0.0 0.0 0.00 0.00 0.00 81 1015.7
20260502120320 10 0 0.0 0.0 0.00 0.00 0.00 81 1015.6
20260502120220 10 0 0.0 0.0 0.00 0.00 0.00 81 1015.6
20260502120120 10 0 0.0 0.0 0.00 0.00 0.00 81 1015.8
20260502115919 10 0 0.0 0.0 0.00 0.00 0.00 80 1015.6
20260502115819 10 0 0.0 0.0 0.00 0.00 0.00 80 1015.6
20260502115718 10 0 0.0 0.0 0.00 0.00 0.00 80 1015.6
20260502115618 10 0 0.0 0.0 0.00 0.00 0.00 80 1015.6
20260502115518 10 0 0.0 0.0 0.00 0.00 0.00 79 1015.7
20260502115417 10 0 0.0 0.0 0.00 0.00 0.00 79 1015.9
20260502115317 10 0 0.0 0.0 0.00 0.00 0.00 79 1015.7
20260502115217 10 0 0.0 0.0 0.00 0.00 0.00 79 1015.8
20260502115116 10 0 0.0 0.0 0.00 0.00 0.00 78 1015.7
20260502115016 10 0 0.0 0.0 0.00 0.00 0.00 79 1015.7
20260502114915 10 0 0.0 0.0 0.00 0.00 0.00 79 1015.7
20260502114815 10 0 0.0 0.0 0.00 0.00 0.00 79 1015.7
20260502114711 10 0 0.0 0.0 0.00 0.00 0.00 80 1015.7
20260502114607 10 0 0.0 0.0 0.00 0.00 0.00 81 1015.7
20260502114503 10 0 0.0 0.0 0.00 0.00 0.00 81 1015.8
20260502114400 9 0 0.0 0.0 0.00 0.00 0.00 82 1015.9
20260502114300 9 0 0.0 0.0 0.00 0.00 0.00 82 1015.7
20260502114200 9 0 0.0 0.0 0.00 0.00 0.00 82 1015.7
20260502114100 10 0 0.0 0.0 0.00 0.00 0.00 82 1015.7
20260502113959 9 0 0.0 0.0 0.00 0.00 0.00 82 1015.6
20260502113858 9 0 0.0 0.0 0.00 0.00 0.00 82 1015.7
20260502113758 9 0 0.0 0.0 0.00 0.00 0.00 82 1015.7
20260502113658 9 0 0.0 0.0 0.00 0.00 0.00 82 1015.7
20260502113557 9 0 0.0 0.0 0.00 0.00 0.00 82 1015.6
20260502113458 9 0 0.0 0.0 0.00 0.00 0.00 82 1015.5
20260502113358 9 0 0.0 0.0 0.00 0.00 0.00 84 1015.8
20260502113257 9 0 0.0 0.0 0.00 0.00 0.00 85 1015.8
20260502113156 9 0 0.0 0.0 0.00 0.00 0.00 85 1015.5
20260502113056 9 0 0.0 0.0 0.00 0.00 0.00 85 1015.4
20260502112956 9 0 0.0 0.0 0.00 0.00 0.00 85 1015.6
20260502112855 9 0 0.0 0.0 0.00 0.00 0.00 86 1015.6
20260502112756 9 0 0.0 0.0 0.00 0.00 0.00 86 1015.6
20260502112656 9 0 0.0 0.0 0.00 0.00 0.00 86 1015.5
20260502112555 9 0 0.0 0.0 0.00 0.00 0.00 86 1015.6
20260502112454 9 0 0.0 0.0 0.00 0.00 0.00 86 1015.6
20260502112355 9 0 0.0 0.0 0.00 0.00 0.00 86 1015.4
20260502112254 9 0 0.0 0.0 0.00 0.00 0.00 86 1015.5
20260502112154 9 0 0.0 0.0 0.00 0.00 0.00 86 1015.4
20260502112054 9 0 0.0 0.0 0.00 0.00 0.00 87 1015.4
20260502111954 9 0 0.0 0.0 0.00 0.00 0.00 86 1015.6
20260502111853 9 0 0.0 0.0 0.00 0.00 0.00 86 1015.4
20260502111754 9 0 0.0 0.0 0.00 0.00 0.00 86 1015.4
20260502111653 9 0 0.0 0.0 0.00 0.00 0.00 86 1015.4
20260502111552 9 0 0.0 0.0 0.00 0.00 0.00 87 1015.5
20260502111452 9 0 0.0 0.0 0.00 0.00 0.00 87 1015.5
20260502111351 9 0 0.0 0.0 0.00 0.00 0.00 87 1015.6
20260502111251 9 0 0.0 0.0 0.00 0.00 0.00 87 1015.6
20260502111151 8 0 0.0 0.0 0.00 0.00 0.00 87 1015.4
20260502111050 8 0 0.0 0.0 0.00 0.00 0.00 87 1015.5
20260502110949 8 0 0.0 0.0 0.00 0.00 0.00 87 1015.6
20260502110850 8 0 0.0 0.0 0.00 0.00 0.00 87 1015.6
20260502110749 8 0 0.0 0.0 0.00 0.00 0.00 87 1015.5
20260502110650 8 0 0.0 0.0 0.00 0.00 0.00 87 1015.6
20260502110550 8 0 0.0 0.0 0.00 0.00 0.00 87 1015.3
20260502110449 8 0 0.0 0.0 0.00 0.00 0.00 87 1015.3
20260502110350 8 0 0.0 0.0 0.00 0.00 0.00 87 1015.5
20260502110249 8 0 0.0 0.0 0.00 0.00 0.00 87 1015.5
20260502110149 8 0 0.0 0.0 0.00 0.00 0.00 86 1015.4
20260502110049 8 0 0.0 0.0 0.00 0.00 0.00 86 1015.4
20260502105948 8 0 0.0 0.0 0.00 0.00 0.00 87 1015.5
20260502105848 8 0 0.0 0.0 0.00 0.00 0.00 86 1015.6
20260502105747 8 0 0.0 0.0 0.00 0.00 0.00 86 1015.5
20260502105648 8 0 0.0 0.0 0.00 0.00 0.00 86 1015.6
20260502105548 8 0 0.0 0.0 0.00 0.00 0.00 86 1015.4
20260502105447 8 0 0.0 0.0 0.00 0.00 0.00 86 1015.4
20260502105346 9 0 0.0 0.0 0.00 0.00 0.00 87 1015.4
20260502105247 9 0 0.0 0.0 0.00 0.00 0.00 87 1015.4
20260502105146 9 0 0.0 0.0 0.00 0.00 0.00 87 1015.7
20260502105045 9 0 0.0 0.0 0.00 0.00 0.00 87 1015.7
20260502104946 8 0 0.0 0.0 0.00 0.00 0.00 86 1015.6
20260502104846 8 0 0.0 0.0 0.00 0.00 0.00 86 1015.7
20260502104745 8 0 0.0 0.0 0.00 0.00 0.00 86 1015.6
20260502104645 8 0 0.0 0.0 0.00 0.00 0.00 86 1015.6
20260502104545 8 0 0.0 0.0 0.00 0.00 0.00 87 1015.7
20260502104445 8 0 0.0 0.0 0.00 0.00 0.00 87 1015.7
20260502104345 8 0 0.0 0.0 0.00 0.00 0.00 87 1015.6
20260502104244 8 0 0.0 0.0 0.00 0.00 0.00 88 1015.8
20260502104144 8 0 0.0 0.0 0.00 0.00 0.00 88 1015.9
20260502104044 8 0 0.0 0.0 0.00 0.00 0.00 88 1015.7
20260502103944 8 0 0.0 0.0 0.00 0.00 0.00 88 1015.8
20260502103843 8 0 0.0 0.0 0.00 0.00 0.00 88 1015.8
20260502103743 8 0 0.0 0.0 0.00 0.00 0.00 88 1015.9
20260502103643 8 0 0.0 0.0 0.00 0.00 0.00 88 1015.9
20260502103541 8 0 0.0 0.0 0.00 0.00 0.00 88 1015.9
20260502103442 8 0 0.0 0.0 0.00 0.00 0.00 88 1015.9
20260502103341 9 0 0.0 0.0 0.00 0.00 0.00 88 1016.0
20260502103241 9 0 0.0 0.0 0.00 0.00 0.00 88 1016.0
20260502103141 9 0 0.0 0.0 0.00 0.00 0.00 88 1015.7
20260502103041 9 0 0.0 0.0 0.00 0.00 0.00 88 1015.9
20260502102941 9 0 0.0 0.0 0.00 0.00 0.00 88 1015.9
20260502102841 9 0 0.0 0.0 0.00 0.00 0.00 88 1015.9
20260502102740 9 0 0.0 0.0 0.00 0.00 0.00 88 1015.9
20260502102641 9 0 0.0 0.0 0.00 0.00 0.00 88 1015.9
20260502102539 9 0 0.0 0.0 0.00 0.00 0.00 88 1015.9
20260502102439 9 0 0.0 0.0 0.00 0.00 0.00 88 1015.8
20260502102339 9 0 0.0 0.0 0.00 0.00 0.00 88 1015.8
20260502102239 9 0 0.0 0.0 0.00 0.00 0.00 88 1015.8
20260502102139 9 0 0.0 0.0 0.00 0.00 0.00 88 1016.0
20260502102038 9 0 0.0 0.0 0.00 0.00 0.00 88 1016.0
20260502101938 9 0 0.0 0.0 0.00 0.00 0.00 88 1015.9
20260502101839 9 0 0.0 0.0 0.00 0.00 0.00 88 1015.9
20260502101738 9 0 0.0 0.0 0.00 0.00 0.00 88 1015.8
20260502101637 9 0 0.0 0.0 0.00 0.00 0.00 88 1015.8
20260502101538 9 0 0.0 0.0 0.00 0.00 0.00 88 1016.2
20260502101437 9 0 0.0 0.0 0.00 0.00 0.00 88 1015.9
20260502101337 9 0 0.0 0.0 0.00 0.00 0.00 88 1015.9
20260502101236 9 0 0.0 0.0 0.00 0.00 0.00 88 1015.9
20260502101135 9 0 0.0 0.0 0.00 0.00 0.00 88 1015.8
20260502101036 9 0 0.0 0.0 0.00 0.00 0.00 88 1015.8
20260502100936 9 0 0.0 0.0 0.00 0.00 0.00 88 1015.8
20260502100836 9 0 0.0 0.0 0.00 0.00 0.00 89 1015.8
20260502100735 9 0 0.0 0.0 0.00 0.00 0.00 89 1015.7
20260502100634 9 0 0.0 0.0 0.00 0.00 0.00 89 1015.8
20260502100534 9 0 0.0 0.0 0.00 0.00 0.00 89 1015.7
20260502100434 9 0 0.0 0.0 0.00 0.00 0.00 89 1015.7
20260502100334 9 0 0.0 0.0 0.00 0.00 0.00 89 1015.8
20260502100234 9 0 0.0 0.0 0.00 0.00 0.00 89 1015.7
20260502100133 9 0 0.0 0.0 0.00 0.00 0.00 89 1015.8
20260502091522 9 0 0.0 0.0 0.00 0.00 0.00 90 1015.6
20260502091421 9 0 0.0 0.0 0.00 0.00 0.00 90 1015.5
20260502091320 9 0 0.0 0.0 0.00 0.00 0.00 90 1015.5
20260502091220 8 0 0.0 0.0 0.00 0.00 0.00 90 1015.5
20260502091120 8 0 0.0 0.0 0.00 0.00 0.00 90 1015.6
20260502091019 8 0 0.0 0.0 0.00 0.00 0.00 90 1015.4
20260502090920 8 0 0.0 0.0 0.00 0.00 0.00 90 1015.5
20260502090819 8 0 0.0 0.0 0.00 0.00 0.00 90 1015.5
20260502090719 8 0 0.0 0.0 0.00 0.00 0.00 90 1015.3
20260502090619 8 0 0.0 0.0 0.00 0.00 0.00 90 1015.5
20260502090518 9 0 0.0 0.0 0.00 0.00 0.00 90 1015.4
20260502090419 9 0 0.0 0.0 0.00 0.00 0.00 91 1015.5
20260502090318 9 0 0.0 0.0 0.00 0.00 0.00 91 1015.5
20260502090218 9 0 0.0 0.0 0.00 0.00 0.00 91 1015.5
20260502090118 9 0 0.0 0.0 0.00 0.00 0.00 91 1015.5
20260502071440 9 0 0.0 0.0 0.00 0.00 0.00 91 1014.7
20260502071340 9 0 0.0 0.0 0.00 0.00 0.00 91 1014.6
20260502071240 9 0 0.0 0.0 0.00 0.00 0.00 91 1014.7
20260502071139 9 0 0.0 0.0 0.00 0.00 0.00 91 1014.6
20260502071039 9 0 0.0 0.0 0.00 0.00 0.00 91 1014.6
20260502070939 9 0 0.0 0.0 0.00 0.00 0.00 91 1014.6
20260502070839 9 0 0.0 0.0 0.00 0.00 0.00 91 1014.6
20260502070739 9 0 0.0 0.0 0.00 0.00 0.00 91 1014.5
20260502070638 9 0 0.0 0.0 0.00 0.00 0.00 91 1014.6
20260502070538 9 0 0.0 0.0 0.00 0.00 0.00 91 1014.5
20260502070437 9 0 0.0 0.0 0.00 0.00 0.00 91 1014.5
20260502070338 9 0 0.0 0.0 0.00 0.00 0.00 91 1014.4
20260502070237 9 0 0.0 0.0 0.00 0.00 0.00 91 1014.7
20260502070137 9 0 0.0 0.0 0.00 0.00 0.00 91 1014.6
20260502070037 9 0 0.0 0.0 0.00 0.00 0.00 91 1014.6
20260502065937 9 0 0.0 0.0 0.00 0.00 0.00 91 1014.6
20260502065837 9 0 0.0 0.0 0.00 0.00 0.00 91 1014.6
20260502065736 9 0 0.0 0.0 0.00 0.00 0.00 91 1014.5
20260502065637 9 0 0.0 0.0 0.00 0.00 0.00 91 1014.7
20260502065537 9 0 0.0 0.0 0.00 0.00 0.00 91 1014.6
20260502065436 9 0 0.0 0.0 0.00 0.00 0.00 91 1014.6
20260502065336 9 0 0.0 0.0 0.00 0.00 0.00 91 1014.6
20260502065236 9 0 0.0 0.0 0.00 0.00 0.00 91 1014.6
20260502065136 9 0 0.0 0.0 0.00 0.00 0.00 91 1014.7
20260502065036 9 0 0.0 0.0 0.00 0.00 0.00 91 1014.6
20260502064936 9 0 0.0 0.0 0.00 0.00 0.00 91 1014.5
20260502064835 9 0 0.0 0.0 0.00 0.00 0.00 91 1014.5
20260502064735 9 0 0.0 0.0 0.00 0.00 0.00 91 1014.6
20260502064636 9 0 0.0 0.0 0.00 0.00 0.00 91 1014.6
20260502064535 9 0 0.0 0.0 0.00 0.00 0.00 91 1014.6
20260502064434 9 0 0.0 0.0 0.00 0.00 0.00 91 1014.6
20260502064334 9 0 0.0 0.0 0.00 0.00 0.00 91 1014.6
20260502064233 9 0 0.0 0.0 0.00 0.00 0.00 91 1014.7
20260502064134 9 0 0.0 0.0 0.00 0.00 0.00 91 1014.6
20260502064034 9 0 0.0 0.0 0.00 0.00 0.00 91 1014.6
20260502063934 9 0 0.0 0.0 0.00 0.00 0.00 91 1014.6
20260502063833 9 0 0.0 0.0 0.00 0.00 0.00 91 1014.5
20260502063733 9 0 0.0 0.0 0.00 0.00 0.00 91 1014.6
20260502063633 9 0 0.0 0.0 0.00 0.00 0.00 91 1014.6
20260502063532 9 0 0.0 0.0 0.00 0.00 0.00 91 1014.8
20260502063433 9 0 0.0 0.0 0.00 0.00 0.00 90 1014.7
20260502063332 9 0 0.0 0.0 0.00 0.00 0.00 90 1014.5
20260502063232 9 0 0.0 0.0 0.00 0.00 0.00 90 1014.4
20260502063132 9 0 0.0 0.0 0.00 0.00 0.00 90 1014.6
20260502063031 9 0 0.0 0.0 0.00 0.00 0.00 90 1014.7
20260502062930 9 0 0.0 0.0 0.00 0.00 0.00 90 1014.7
20260502062831 9 0 0.0 0.0 0.00 0.00 0.00 90 1014.7
20260502062730 9 0 0.0 0.0 0.00 0.00 0.00 90 1014.7
20260502062630 9 0 0.0 0.0 0.00 0.00 0.00 90 1014.5
20260502062530 9 0 0.0 0.0 0.00 0.00 0.00 90 1014.7
20260502062429 9 0 0.0 0.0 0.00 0.00 0.00 90 1014.7
20260502062329 9 0 0.0 0.0 0.00 0.00 0.00 90 1014.8
20260502062230 9 0 0.0 0.0 0.00 0.00 0.00 90 1014.9
20260502062129 9 0 0.0 0.0 0.00 0.00 0.00 90 1014.8
20260502062029 9 0 0.0 0.0 0.00 0.00 0.00 90 1014.8
20260502061929 9 0 0.0 0.0 0.00 0.00 0.00 90 1014.5
20260502061829 10 0 0.0 0.0 0.00 0.00 0.00 90 1014.7
20260502061729 10 0 0.0 0.0 0.00 0.00 0.00 90 1014.7
20260502061628 10 0 0.0 0.0 0.00 0.00 0.00 90 1014.7
20260502061528 9 0 0.0 0.0 0.00 0.00 0.00 90 1014.5
20260502061428 9 0 0.0 0.0 0.00 0.00 0.00 90 1014.7
20260502061328 9 0 0.0 0.0 0.00 0.00 0.00 90 1014.6
20260502061228 9 0 0.0 1.6 0.00 0.00 0.00 90 1014.6
20260502061127 9 0 0.0 3.2 0.00 0.00 0.00 90 1014.7
20260502061027 9 56 1.6 3.2 0.00 0.00 0.00 90 1014.9
20260502060926 9 74 1.6 4.8 0.00 0.00 0.00 90 1014.7
20260502060827 9 91 3.2 4.8 0.00 0.00 0.00 90 1014.8
20260502060726 10 0 0.0 0.0 0.00 0.00 0.00 89 1014.7
20260502060626 10 0 0.0 0.0 0.00 0.00 0.00 89 1014.7
20260502060526 10 0 0.0 0.0 0.00 0.00 0.00 89 1014.7
20260502060426 10 0 0.0 0.0 0.00 0.00 0.00 89 1014.7
20260502060325 10 0 0.0 0.0 0.00 0.00 0.00 89 1014.6
20260502060226 10 0 0.0 0.0 0.00 0.00 0.00 89 1014.6
20260502060126 10 0 0.0 0.0 0.00 0.00 0.00 89 1014.6
20260502060026 10 0 0.0 0.0 0.00 0.00 0.00 89 1014.6
20260502055925 10 0 0.0 0.0 0.00 0.00 0.00 89 1014.8
20260502055825 10 0 0.0 0.0 0.00 0.00 0.00 89 1014.9
20260502055724 10 0 0.0 0.0 0.00 0.00 0.00 89 1014.8
20260502055623 10 0 0.0 0.0 0.00 0.00 0.00 89 1014.8
20260502055524 10 0 0.0 0.0 0.00 0.00 0.00 89 1014.6
20260502055423 10 0 0.0 0.0 0.00 0.00 0.00 89 1014.8
20260502055323 10 0 0.0 0.0 0.00 0.00 0.00 89 1014.8
20260502055223 10 0 0.0 0.0 0.00 0.00 0.00 88 1014.7
20260502055123 10 0 0.0 0.0 0.00 0.00 0.00 88 1014.7
20260502055022 10 0 0.0 0.0 0.00 0.00 0.00 88 1014.8
20260502054922 10 0 0.0 0.0 0.00 0.00 0.00 88 1014.9
20260502054822 10 0 0.0 0.0 0.00 0.00 0.00 88 1014.9
20260502054722 10 0 0.0 0.0 0.00 0.00 0.00 88 1014.8
20260502054622 10 0 0.0 0.0 0.00 0.00 0.00 88 1014.8
20260502054521 10 0 0.0 0.0 0.00 0.00 0.00 88 1014.7
20260502054421 10 0 0.0 0.0 0.00 0.00 0.00 88 1014.7
20260502054321 10 0 0.0 0.0 0.00 0.00 0.00 88 1014.9
20260502054221 10 0 0.0 0.0 0.00 0.00 0.00 87 1015.0
20260502054120 10 0 0.0 0.0 0.00 0.00 0.00 87 1015.0
20260502054021 10 0 0.0 0.0 0.00 0.00 0.00 87 1015.0
20260502053921 10 0 0.0 0.0 0.00 0.00 0.00 87 1014.8
20260502053820 10 0 0.0 0.0 0.00 0.00 0.00 86 1015.1
20260502053720 10 0 0.0 0.0 0.00 0.00 0.00 86 1014.9
20260502053619 10 0 0.0 0.0 0.00 0.00 0.00 86 1014.9
20260502053519 10 0 0.0 0.0 0.00 0.00 0.00 86 1014.9
20260502053420 10 0 0.0 0.0 0.00 0.00 0.00 86 1014.9
20260502053320 10 0 0.0 0.0 0.00 0.00 0.00 86 1014.7
20260502053220 10 0 0.0 0.0 0.00 0.00 0.00 86 1014.7
20260502053119 10 0 0.0 0.0 0.00 0.00 0.00 85 1014.8
20260502053018 10 0 0.0 0.0 0.00 0.00 0.00 85 1014.8
20260502052919 10 0 0.0 0.0 0.00 0.00 0.00 85 1014.7
20260502052819 10 0 0.0 0.0 0.00 0.00 0.00 85 1014.9
20260502052718 10 0 0.0 0.0 0.00 0.00 0.00 85 1014.9
20260502052618 10 0 0.0 0.0 0.00 0.00 0.00 85 1014.8
20260502052519 10 0 0.0 0.0 0.00 0.00 0.00 85 1014.9
20260502052418 10 0 0.0 0.0 0.00 0.00 0.00 85 1014.9
20260502052318 10 0 0.0 0.0 0.00 0.00 0.00 85 1014.9
20260502052218 10 0 0.0 0.0 0.00 0.00 0.00 85 1015.1
20260502052118 10 0 0.0 0.0 0.00 0.00 0.00 85 1014.9
20260502052017 10 0 0.0 0.0 0.00 0.00 0.00 85 1015.0
20260502051917 10 0 0.0 0.0 0.00 0.00 0.00 85 1014.9
20260502051816 10 0 0.0 0.0 0.00 0.00 0.00 85 1015.0
20260502051717 10 0 0.0 0.0 0.00 0.00 0.00 85 1015.0
20260502051617 10 0 0.0 0.0 0.00 0.00 0.00 84 1015.0
20260502051517 10 0 0.0 0.0 0.00 0.00 0.00 84 1015.0
20260502051416 10 0 0.0 0.0 0.00 0.00 0.00 84 1015.0
20260502051316 10 0 0.0 0.0 0.00 0.00 0.00 84 1015.0
20260502051216 10 0 0.0 0.0 0.00 0.00 0.00 84 1015.0
20260502051115 10 0 0.0 0.0 0.00 0.00 0.00 84 1015.2
20260502051016 10 0 0.0 0.0 0.00 0.00 0.00 84 1015.0
20260502050915 11 0 0.0 0.0 0.00 0.00 0.00 84 1015.0
20260502050816 11 0 0.0 0.0 0.00 0.00 0.00 84 1015.0
20260502050716 11 0 0.0 0.0 0.00 0.00 0.00 84 1015.0
20260502050615 11 0 0.0 0.0 0.00 0.00 0.00 84 1015.3
20260502050516 11 0 0.0 0.0 0.00 0.00 0.00 83 1015.0
20260502050415 11 0 0.0 0.0 0.00 0.00 0.00 83 1015.1
20260502050314 11 0 0.0 0.0 0.00 0.00 0.00 83 1015.2
20260502050215 11 0 0.0 0.0 0.00 0.00 0.00 83 1015.1
20260502050114 11 0 0.0 0.0 0.00 0.00 0.00 82 1015.0
20260502050015 11 0 0.0 0.0 0.00 0.00 0.00 82 1015.0
20260502045913 11 0 0.0 0.0 0.00 0.00 0.00 82 1015.2
20260502045812 11 0 0.0 0.0 0.00 0.00 0.00 82 1015.1
20260502045712 11 0 0.0 0.0 0.00 0.00 0.00 82 1014.9
20260502045612 11 0 0.0 0.0 0.00 0.00 0.00 82 1014.9
20260502045459 11 0 0.0 0.0 0.00 0.00 0.00 82 1015.0
20260502045359 11 0 0.0 0.0 0.00 0.00 0.00 82 1015.0
20260502045259 11 0 0.0 0.0 0.00 0.00 0.00 81 1015.1
20260502045158 11 0 0.0 0.0 0.00 0.00 0.00 81 1015.4
20260502045057 11 0 0.0 0.0 0.00 0.00 0.00 81 1015.2
20260502044957 11 0 0.0 0.0 0.00 0.00 0.00 81 1015.0
20260502044858 11 0 0.0 0.0 0.00 0.00 0.00 81 1015.2
20260502044757 11 0 0.0 0.0 0.00 0.00 0.00 81 1015.1
20260502044656 11 0 0.0 0.0 0.00 0.00 0.00 81 1015.1
20260502044556 11 0 0.0 0.0 0.00 0.00 0.00 81 1015.2
20260502044456 11 0 0.0 0.0 0.00 0.00 0.00 81 1015.2
20260502044356 11 0 0.0 0.0 0.00 0.00 0.00 81 1015.2
20260502044255 11 0 0.0 0.0 0.00 0.00 0.00 81 1015.1
20260502044156 11 0 0.0 0.0 0.00 0.00 0.00 81 1015.0
20260502044056 11 0 0.0 0.0 0.00 0.00 0.00 81 1015.0
20260502043955 11 0 0.0 0.0 0.00 0.00 0.00 82 1015.1
20260502043855 11 0 0.0 0.0 0.00 0.00 0.00 81 1015.0
20260502043754 11 0 0.0 0.0 0.00 0.00 0.00 82 1015.0
20260502043654 11 0 0.0 0.0 0.00 0.00 0.00 82 1015.0
20260502043554 11 0 0.0 0.0 0.00 0.00 0.00 81 1015.1
20260502043454 11 0 0.0 0.0 0.00 0.00 0.00 81 1015.0
20260502043354 11 0 0.0 0.0 0.00 0.00 0.00 81 1015.2
20260502043253 11 0 0.0 0.0 0.00 0.00 0.00 81 1015.2
20260502043153 11 0 0.0 0.0 0.00 0.00 0.00 81 1015.0
20260502043052 11 0 0.0 0.0 0.00 0.00 0.00 80 1015.1
20260502042952 11 0 0.0 0.0 0.00 0.00 0.00 80 1015.1
20260502042852 11 0 0.0 0.0 0.00 0.00 0.00 80 1015.1
20260502042752 11 0 0.0 0.0 0.00 0.00 0.00 80 1015.2
20260502042651 11 0 0.0 0.0 0.00 0.00 0.00 80 1015.1
20260502042550 11 0 0.0 0.0 0.00 0.00 0.00 79 1015.0
20260502042451 11 0 0.0 0.0 0.00 0.00 0.00 79 1015.0
20260502042351 11 0 0.0 0.0 0.00 0.00 0.00 79 1015.2
20260502042250 11 0 0.0 0.0 0.00 0.00 0.00 79 1015.2
20260502042149 11 0 0.0 0.0 0.00 0.00 0.00 79 1015.0
20260502042050 11 0 0.0 0.0 0.00 0.00 0.00 79 1015.0
20260502041949 11 0 0.0 0.0 0.00 0.00 0.00 79 1015.0
20260502041849 11 0 0.0 0.0 0.00 0.00 0.00 79 1015.0
20260502041749 11 0 0.0 0.0 0.00 0.00 0.00 79 1014.9
20260502041648 12 0 0.0 0.0 0.00 0.00 0.00 79 1014.9
20260502041549 12 0 0.0 0.0 0.00 0.00 0.00 79 1014.9
20260502041449 12 0 0.0 0.0 0.00 0.00 0.00 79 1015.0
20260502041348 12 0 0.0 0.0 0.00 0.00 0.00 79 1015.0
20260502041248 12 0 0.0 0.0 0.00 0.00 0.00 79 1015.0
20260502041148 12 0 0.0 0.0 0.00 0.00 0.00 79 1015.0
20260502041048 12 0 0.0 1.6 0.00 0.00 0.00 79 1015.0
20260502040947 12 0 0.0 0.0 0.00 0.00 0.00 78 1015.0
20260502040847 12 0 0.0 0.0 0.00 0.00 0.00 79 1015.0
20260502040748 12 0 0.0 0.0 0.00 0.00 0.00 78 1015.2
20260502040647 12 0 0.0 0.0 0.00 0.00 0.00 78 1015.1
20260502040547 12 0 0.0 0.0 0.00 0.00 0.00 78 1015.3
20260502040447 12 0 0.0 0.0 0.00 0.00 0.00 78 1015.3
20260502040347 12 0 0.0 0.0 0.00 0.00 0.00 78 1015.1
20260502040246 12 0 0.0 0.0 0.00 0.00 0.00 78 1015.1
20260502040145 12 0 0.0 0.0 0.00 0.00 0.00 78 1015.2
20260502040045 12 0 0.0 0.0 0.00 0.00 0.00 78 1015.1
20260502035944 12 0 0.0 0.0 0.00 0.00 0.00 78 1015.2
20260502035845 12 0 0.0 0.0 0.00 0.00 0.00 78 1015.1
20260502035744 12 0 0.0 0.0 0.00 0.00 0.00 78 1015.3
20260502035645 12 0 0.0 0.0 0.00 0.00 0.00 78 1015.3
20260502035544 12 0 0.0 0.0 0.00 0.00 0.00 78 1014.9
20260502035443 12 0 0.0 0.0 0.00 0.00 0.00 78 1015.1
20260502035344 12 0 0.0 0.0 0.00 0.00 0.00 77 1014.9
20260502035243 12 0 0.0 0.0 0.00 0.00 0.00 77 1015.1
20260502035143 12 0 0.0 0.0 0.00 0.00 0.00 77 1015.2
20260502035042 12 0 0.0 0.0 0.00 0.00 0.00 77 1015.2
20260502034942 12 0 0.0 0.0 0.00 0.00 0.00 77 1015.0
20260502034843 12 0 0.0 0.0 0.00 0.00 0.00 77 1015.0
20260502034742 12 0 0.0 3.2 0.00 0.00 0.00 76 1015.2
20260502034642 12 67 1.6 3.2 0.00 0.00 0.00 76 1015.1
20260502034542 12 0 0.0 0.0 0.00 0.00 0.00 76 1014.9
20260502034441 12 0 0.0 0.0 0.00 0.00 0.00 77 1015.2
20260502034341 12 0 0.0 0.0 0.00 0.00 0.00 76 1015.1
20260502034240 12 0 0.0 0.0 0.00 0.00 0.00 76 1015.1
20260502034141 12 0 0.0 0.0 0.00 0.00 0.00 76 1015.1
20260502034040 12 0 0.0 0.0 0.00 0.00 0.00 76 1015.1
20260502033941 12 0 0.0 0.0 0.00 0.00 0.00 76 1015.0
20260502033841 12 0 0.0 4.8 0.00 0.00 0.00 75 1015.1
20260502033740 12 82 3.2 4.8 0.00 0.00 0.00 75 1015.1
20260502033640 12 0 0.0 0.0 0.00 0.00 0.00 76 1015.1
20260502033540 12 0 0.0 0.0 0.00 0.00 0.00 76 1014.9
20260502033439 12 0 0.0 0.0 0.00 0.00 0.00 76 1014.8
20260502033339 12 0 0.0 0.0 0.00 0.00 0.00 75 1014.9
20260502033239 12 0 0.0 0.0 0.00 0.00 0.00 75 1014.9
20260502033139 12 0 0.0 0.0 0.00 0.00 0.00 75 1015.0
20260502033038 12 0 0.0 0.0 0.00 0.00 0.00 75 1015.1
20260502032938 12 0 0.0 0.0 0.00 0.00 0.00 75 1014.8
20260502032839 12 0 0.0 0.0 0.00 0.00 0.00 75 1014.8
20260502032738 12 0 0.0 0.0 0.00 0.00 0.00 75 1014.7
20260502032638 12 0 0.0 0.0 0.00 0.00 0.00 75 1014.8
20260502032538 12 0 0.0 0.0 0.00 0.00 0.00 75 1015.0
20260502032437 12 0 0.0 0.0 0.00 0.00 0.00 75 1015.0
20260502032337 12 0 0.0 0.0 0.00 0.00 0.00 75 1014.9
20260502032236 12 0 0.0 0.0 0.00 0.00 0.00 75 1014.9
20260502032136 12 0 0.0 0.0 0.00 0.00 0.00 75 1014.9
20260502032036 12 0 0.0 0.0 0.00 0.00 0.00 75 1014.9
20260502031936 12 0 0.0 0.0 0.00 0.00 0.00 75 1014.8
20260502031835 12 0 0.0 0.0 0.00 0.00 0.00 75 1014.8
20260502031735 12 0 0.0 1.6 0.00 0.00 0.00 75 1014.8
20260502031635 12 82 1.6 1.6 0.00 0.00 0.00 74 1014.8
20260502031535 12 81 0.0 1.6 0.00 0.00 0.00 75 1014.6
20260502031434 12 0 0.0 0.0 0.00 0.00 0.00 74 1015.0
20260502031333 12 0 0.0 0.0 0.00 0.00 0.00 74 1014.9
20260502031234 12 0 0.0 0.0 0.00 0.00 0.00 74 1014.9
20260502031133 13 0 0.0 0.0 0.00 0.00 0.00 74 1015.0
20260502031033 13 0 0.0 0.0 0.00 0.00 0.00 74 1015.1
20260502030933 13 0 0.0 0.0 0.00 0.00 0.00 74 1014.9
20260502030833 13 0 0.0 0.0 0.00 0.00 0.00 74 1014.9
20260502030732 13 0 0.0 0.0 0.00 0.00 0.00 74 1015.0
20260502030632 13 0 0.0 0.0 0.00 0.00 0.00 73 1015.0
20260502030532 13 0 0.0 0.0 0.00 0.00 0.00 74 1015.1
20260502030432 13 0 0.0 0.0 0.00 0.00 0.00 73 1015.0
20260502030332 13 0 0.0 0.0 0.00 0.00 0.00 73 1015.1
20260502030231 13 0 0.0 0.0 0.00 0.00 0.00 73 1015.0
20260502030130 13 0 0.0 0.0 0.00 0.00 0.00 73 1015.0
20260502030031 13 0 0.0 0.0 0.00 0.00 0.00 73 1015.0
20260502025930 13 0 0.0 0.0 0.00 0.00 0.00 73 1014.8
20260502025830 13 0 0.0 0.0 0.00 0.00 0.00 72 1015.0
20260502025730 13 0 0.0 0.0 0.00 0.00 0.00 72 1014.9
20260502025629 13 0 0.0 0.0 0.00 0.00 0.00 72 1014.9
20260502025529 13 0 0.0 0.0 0.00 0.00 0.00 72 1015.0
20260502025429 13 0 0.0 0.0 0.00 0.00 0.00 72 1014.9
20260502025329 13 0 0.0 0.0 0.00 0.00 0.00 72 1014.9
20260502025229 13 0 0.0 0.0 0.00 0.00 0.00 72 1014.9
20260502025129 13 0 0.0 0.0 0.00 0.00 0.00 72 1015.0
20260502025028 13 0 0.0 0.0 0.00 0.00 0.00 72 1015.0
20260502024928 13 0 0.0 0.0 0.00 0.00 0.00 72 1015.0
20260502024828 13 0 0.0 0.0 0.00 0.00 0.00 72 1014.9
20260502024727 13 0 0.0 0.0 0.00 0.00 0.00 72 1014.8
20260502024628 13 0 0.0 0.0 0.00 0.00 0.00 71 1014.8
20260502024528 13 0 0.0 0.0 0.00 0.00 0.00 71 1014.9
20260502024428 13 0 0.0 0.0 0.00 0.00 0.00 71 1014.9
20260502024328 13 0 0.0 0.0 0.00 0.00 0.00 71 1014.7
20260502024227 13 0 0.0 0.0 0.00 0.00 0.00 71 1014.8
20260502024128 13 0 0.0 0.0 0.00 0.00 0.00 71 1014.6
20260502024027 13 0 0.0 0.0 0.00 0.00 0.00 72 1014.6
20260502023927 13 0 0.0 0.0 0.00 0.00 0.00 72 1014.7
20260502023827 13 0 0.0 0.0 0.00 0.00 0.00 71 1014.6
20260502023726 13 0 0.0 0.0 0.00 0.00 0.00 71 1014.6
20260502023627 13 0 0.0 1.6 0.00 0.00 0.00 70 1014.6
20260502023526 13 74 1.6 1.6 0.00 0.00 0.00 71 1014.7
20260502023425 13 0 0.0 0.0 0.00 0.00 0.00 70 1014.4
20260502023326 13 0 0.0 1.6 0.00 0.00 0.00 71 1014.6
20260502023225 13 70 1.6 1.6 0.00 0.00 0.00 70 1014.6
20260502023125 13 0 0.0 3.2 0.00 0.00 0.00 70 1014.5
20260502023024 13 0 0.0 6.4 0.00 0.00 0.00 70 1014.5
20260502022923 13 77 4.8 6.4 0.00 0.00 0.00 69 1014.5
20260502022823 13 0 0.0 0.0 0.00 0.00 0.00 70 1014.5
20260502022722 13 0 0.0 3.2 0.00 0.00 0.00 69 1014.4
20260502022622 13 70 1.6 3.2 0.00 0.00 0.00 69 1014.4
20260502022523 13 0 0.0 1.6 0.00 0.00 0.00 69 1014.4
20260502022422 13 70 0.0 1.6 0.00 0.00 0.00 69 1014.3
20260502022322 13 0 0.0 1.6 0.00 0.00 0.00 69 1014.4
20260502022222 13 82 1.6 4.8 0.00 0.00 0.00 69 1014.5
20260502022121 14 78 1.6 4.8 0.00 0.00 0.00 68 1014.5
20260502022021 14 78 0.0 4.8 0.00 0.00 0.00 69 1014.5
20260502021921 14 78 3.2 4.8 0.00 0.00 0.00 68 1014.5
20260502021820 14 0 0.0 0.0 0.00 0.00 0.00 68 1014.5
20260502021720 14 0 0.0 0.0 0.00 0.00 0.00 68 1014.4
20260502021620 14 0 0.0 1.6 0.00 0.00 0.00 68 1014.4
20260502021520 14 0 0.0 1.6 0.00 0.00 0.00 68 1014.4
20260502021420 14 71 1.6 3.2 0.00 0.00 0.00 67 1014.3
20260502021319 14 0 0.0 0.0 0.00 0.00 0.00 68 1014.4
20260502021219 14 0 0.0 0.0 0.00 0.00 0.00 67 1014.4
20260502021119 14 0 0.0 3.2 0.00 0.00 0.00 67 1014.6
20260502021018 14 97 1.6 3.2 0.00 0.00 0.00 67 1014.4
20260502020918 14 0 0.0 3.2 0.00 0.00 0.00 67 1014.4
20260502020818 14 69 1.6 3.2 0.00 0.00 0.00 67 1014.4
20260502020717 14 0 0.0 0.0 0.00 0.00 0.00 67 1014.3
20260502020618 14 0 0.0 3.2 0.00 0.00 0.00 67 1014.4
20260502020517 14 74 1.6 4.8 0.00 0.00 0.00 66 1014.5
20260502020416 14 78 0.0 3.2 0.00 0.00 0.00 66 1014.5
20260502020317 14 79 3.2 3.2 0.00 0.00 0.00 66 1014.4
20260502020217 14 0 0.0 1.6 0.00 0.00 0.00 67 1014.5
20260502020117 14 0 0.0 0.0 0.00 0.00 0.00 66 1014.4
20260502020016 14 0 0.0 3.2 0.00 0.00 0.00 66 1014.6
20260502015916 14 0 0.0 1.6 0.00 0.00 0.00 66 1014.6
20260502015816 14 0 0.0 1.6 0.00 0.00 0.00 66 1014.7
20260502015716 14 89 0.0 1.6 0.00 0.00 0.00 67 1014.6
20260502015616 14 0 0.0 0.0 0.00 0.00 0.00 66 1014.6
20260502015516 14 0 0.0 0.0 0.00 0.00 0.00 66 1014.7
20260502015415 15 0 0.0 0.0 0.00 0.00 0.00 65 1014.5
20260502015315 15 0 0.0 1.6 0.00 0.00 0.00 66 1014.6
20260502015215 15 0 0.0 1.6 0.00 0.00 0.00 65 1014.5
20260502015115 15 0 0.0 1.6 0.00 0.00 0.00 65 1014.7
20260502015015 15 0 0.0 3.2 0.00 0.00 0.00 65 1014.6
20260502014914 15 0 0.0 3.2 0.00 0.00 0.00 65 1014.5
20260502014815 15 0 0.0 9.7 0.00 0.00 0.00 64 1014.5
20260502014714 15 0 0.0 9.7 0.00 0.00 0.00 64 1014.6
20260502014614 15 0 0.0 3.2 0.00 0.00 0.00 64 1014.5
20260502014513 15 75 0.0 3.2 0.00 0.00 0.00 63 1014.4
20260502014414 15 0 0.0 3.2 0.00 0.00 0.00 64 1014.4
20260502014313 15 76 1.6 3.2 0.00 0.00 0.00 63 1014.4
20260502014214 15 92 0.0 6.4 0.00 0.00 0.00 63 1014.5
20260502014113 15 78 1.6 9.7 0.00 0.00 0.00 64 1014.5
20260502014013 15 76 0.0 9.7 0.00 0.00 0.00 63 1014.5
20260502013909 15 86 0.0 4.8 0.00 0.00 0.00 63 1014.3
20260502013804 15 0 0.0 4.8 0.00 0.00 0.00 62 1014.3
20260502013700 15 0 0.0 1.6 0.00 0.00 0.00 62 1014.3
20260502013600 15 78 1.6 1.6 0.00 0.00 0.00 63 1014.5
20260502013501 15 0 0.0 0.0 0.00 0.00 0.00 62 1014.4
20260502013357 15 0 0.0 3.2 0.00 0.00 0.00 63 1014.6
20260502013257 15 74 1.6 3.2 0.00 0.00 0.00 63 1014.4
20260502013157 15 0 0.0 0.0 0.00 0.00 0.00 61 1014.2
20260502013057 15 0 0.0 3.2 0.00 0.00 0.00 61 1014.4
20260502012956 15 90 1.6 3.2 0.00 0.00 0.00 62 1014.4
20260502012856 15 0 0.0 6.4 0.00 0.00 0.00 62 1014.5
20260502012755 15 0 0.0 0.0 0.00 0.00 0.00 62 1014.5
20260502012656 15 0 0.0 0.0 0.00 0.00 0.00 61 1014.4
20260502012555 15 0 0.0 0.0 0.00 0.00 0.00 61 1014.4
20260502012455 15 0 0.0 3.2 0.00 0.00 0.00 62 1014.4
20260502012355 15 85 1.6 3.2 0.00 0.00 0.00 61 1014.5
20260502012255 15 0 0.0 0.0 0.00 0.00 0.00 63 1014.4
20260502012155 15 0 0.0 1.6 0.00 0.00 0.00 61 1014.3
20260502012054 15 0 0.0 1.6 0.00 0.00 0.00 62 1014.3
20260502011954 15 0 0.0 1.6 0.00 0.00 0.00 61 1014.2
20260502011854 15 0 0.0 1.6 0.00 0.00 0.00 61 1014.4
20260502011754 15 0 0.0 0.0 0.00 0.00 0.00 61 1014.3
20260502011655 15 0 0.0 0.0 0.00 0.00 0.00 61 1014.3
20260502011553 15 0 0.0 0.0 0.00 0.00 0.00 61 1014.2
20260502011454 15 0 0.0 0.0 0.00 0.00 0.00 61 1014.3
20260502011353 15 0 0.0 0.0 0.00 0.00 0.00 61 1014.3
20260502011253 15 0 0.0 1.6 0.00 0.00 0.00 60 1014.2
20260502011153 15 0 0.0 1.6 0.00 0.00 0.00 60 1014.1
20260502011053 15 0 0.0 0.0 0.00 0.00 0.00 60 1014.2
20260502010953 15 0 0.0 0.0 0.00 0.00 0.00 60 1014.1
20260502010853 15 0 0.0 0.0 0.00 0.00 0.00 60 1014.1
20260502010753 15 0 0.0 0.0 0.00 0.00 0.00 60 1014.1
20260502010652 15 0 0.0 0.0 0.00 0.00 0.00 60 1014.2
20260502010553 15 0 0.0 0.0 0.00 0.00 0.00 60 1013.9
20260502010453 15 0 0.0 3.2 0.00 0.00 0.00 59 1014.0
20260502010352 15 0 0.0 0.0 0.00 0.00 0.00 60 1014.0
20260502010252 15 0 0.0 0.0 0.00 0.00 0.00 60 1014.0
20260502010152 15 0 0.0 0.0 0.00 0.00 0.00 60 1014.1
20260502010052 15 0 0.0 0.0 0.00 0.00 0.00 60 1014.1
20260502005952 15 0 0.0 0.0 0.00 0.00 0.00 61 1014.1
20260502005851 15 0 0.0 0.0 0.00 0.00 0.00 61 1014.0
20260502005751 15 0 0.0 0.0 0.00 0.00 0.00 60 1014.1
20260502005651 15 0 0.0 0.0 0.00 0.00 0.00 60 1014.1
20260502005550 15 0 0.0 1.6 0.00 0.00 0.00 59 1014.1
20260502005449 15 0 0.0 0.0 0.00 0.00 0.00 60 1013.7
20260502005350 15 0 0.0 0.0 0.00 0.00 0.00 60 1013.9
20260502005249 15 0 0.0 0.0 0.00 0.00 0.00 59 1013.9
20260502005150 15 0 0.0 0.0 0.00 0.00 0.00 59 1013.7
20260502005049 15 0 0.0 0.0 0.00 0.00 0.00 59 1014.0
20260502004949 15 0 0.0 0.0 0.00 0.00 0.00 59 1014.0
20260502004849 15 0 0.0 0.0 0.00 0.00 0.00 60 1013.7
20260502004748 15 0 0.0 0.0 0.00 0.00 0.00 60 1013.7
20260502004648 15 0 0.0 0.0 0.00 0.00 0.00 60 1013.8
20260502004548 15 0 0.0 0.0 0.00 0.00 0.00 59 1013.6
20260502004448 15 0 0.0 0.0 0.00 0.00 0.00 60 1013.6
20260502004348 15 0 0.0 0.0 0.00 0.00 0.00 59 1013.7
20260502004248 15 0 0.0 0.0 0.00 0.00 0.00 59 1013.7
20260502004147 15 0 0.0 0.0 0.00 0.00 0.00 59 1013.6
20260502004047 15 0 0.0 0.0 0.00 0.00 0.00 59 1013.5
20260502003947 15 0 0.0 0.0 0.00 0.00 0.00 59 1013.6
20260502003847 15 0 0.0 0.0 0.00 0.00 0.00 60 1013.6
20260502003746 15 0 0.0 0.0 0.00 0.00 0.00 60 1013.4
20260502003646 15 0 0.0 0.0 0.00 0.00 0.00 59 1013.4
20260502003545 15 0 0.0 0.0 0.00 0.00 0.00 59 1013.5
20260502003445 15 0 0.0 0.0 0.00 0.00 0.00 59 1013.5
20260502003345 15 0 0.0 0.0 0.00 0.00 0.00 59 1013.7
20260502003245 15 0 0.0 0.0 0.00 0.00 0.00 58 1013.5
20260502003145 15 0 0.0 0.0 0.00 0.00 0.00 58 1013.6
20260502003045 15 0 0.0 0.0 0.00 0.00 0.00 58 1013.4
20260502002945 15 0 0.0 0.0 0.00 0.00 0.00 58 1013.5
20260502002845 15 0 0.0 0.0 0.00 0.00 0.00 59 1013.5
20260502002745 15 0 0.0 0.0 0.00 0.00 0.00 58 1013.4
20260502002644 15 0 0.0 0.0 0.00 0.00 0.00 58 1013.5
20260502002544 15 0 0.0 0.0 0.00 0.00 0.00 59 1013.3
20260502002444 15 0 0.0 0.0 0.00 0.00 0.00 58 1013.3
20260502002344 15 0 0.0 0.0 0.00 0.00 0.00 58 1013.2
20260502002245 15 0 0.0 0.0 0.00 0.00 0.00 58 1013.2
20260502002143 15 0 0.0 0.0 0.00 0.00 0.00 58 1013.2
20260502002044 15 0 0.0 0.0 0.00 0.00 0.00 58 1013.2
20260502001943 15 0 0.0 0.0 0.00 0.00 0.00 58 1013.2
20260502001842 15 0 0.0 0.0 0.00 0.00 0.00 57 1013.1
20260502001743 15 0 0.0 0.0 0.00 0.00 0.00 58 1013.0
20260502001643 15 0 0.0 0.0 0.00 0.00 0.00 60 1013.2
20260502001542 15 0 0.0 0.0 0.00 0.00 0.00 57 1013.1
20260502001442 15 0 0.0 0.0 0.00 0.00 0.00 58 1013.1
20260502001342 15 0 0.0 0.0 0.00 0.00 0.00 57 1013.1
20260502001241 15 0 0.0 0.0 0.00 0.00 0.00 57 1013.1
20260502001141 15 0 0.0 0.0 0.00 0.00 0.00 57 1013.1
20260502001041 15 0 0.0 0.0 0.00 0.00 0.00 57 1013.1
20260502000940 15 0 0.0 0.0 0.00 0.00 0.00 57 1013.1
20260502000841 15 0 0.0 0.0 0.00 0.00 0.00 57 1013.1
20260502000740 15 0 0.0 0.0 0.00 0.00 0.00 56 1013.1
20260502000640 15 0 0.0 0.0 0.00 0.00 0.00 57 1013.2
20260502000539 16 0 0.0 0.0 0.00 0.00 0.00 56 1013.0
20260502000439 16 0 0.0 0.0 0.00 0.00 0.00 57 1013.0
20260502000339 16 0 0.0 0.0 0.00 0.00 0.00 56 1013.1
20260502000240 16 0 0.0 0.0 0.00 0.00 0.00 56 1013.1
20260502000138 16 0 0.0 0.0 0.00 0.00 0.00 55 1013.2
20260502000038 16 0 0.0 0.0 0.00 0.00 0.00 55 1013.1
20260501235937 16 0 0.0 0.0 0.00 0.00 0.00 55 1013.1
20260501235837 16 0 0.0 1.6 0.00 0.00 0.00 56 1013.1
20260501235737 16 75 0.0 1.6 0.00 0.00 0.00 55 1013.3
20260501235636 16 0 0.0 0.0 0.00 0.00 0.00 55 1013.3
20260501235536 16 0 0.0 0.0 0.00 0.00 0.00 55 1012.9
20260501235436 16 0 0.0 0.0 0.00 0.00 0.00 55 1013.2
20260501235336 16 0 0.0 1.6 0.00 0.00 0.00 54 1013.0
20260501235235 16 0 0.0 1.6 0.00 0.00 0.00 55 1013.1
20260501235135 16 0 0.0 0.0 0.00 0.00 0.00 54 1013.1
20260501235035 16 0 0.0 0.0 0.00 0.00 0.00 55 1013.2
20260501234935 16 0 0.0 0.0 0.00 0.00 0.00 54 1013.1
20260501234834 16 0 0.0 0.0 0.00 0.00 0.00 54 1013.1
20260501234734 16 0 0.0 0.0 0.00 0.00 0.00 54 1013.2
20260501234634 16 0 0.0 1.6 0.00 0.00 0.00 54 1013.0
20260501234534 16 0 0.0 0.0 0.00 0.00 0.00 55 1013.0
20260501234433 16 0 0.0 0.0 0.00 0.00 0.00 54 1013.1
20260501234333 16 0 0.0 0.0 0.00 0.00 0.00 55 1013.1
20260501234233 16 0 0.0 1.6 0.00 0.00 0.00 55 1013.1
20260501234133 16 0 0.0 3.2 0.00 0.00 0.00 55 1013.2
20260501234033 16 0 0.0 3.2 0.00 0.00 0.00 53 1013.2
20260501233933 16 0 0.0 1.6 0.00 0.00 0.00 53 1013.3
20260501233832 16 0 0.0 0.0 0.00 0.00 0.00 55 1013.2
20260501233732 16 0 0.0 1.6 0.00 0.00 0.00 55 1013.2
20260501233631 16 0 0.0 1.6 0.00 0.00 0.00 54 1013.5
20260501233531 16 0 0.0 1.6 0.00 0.00 0.00 53 1013.1
20260501233430 16 0 0.0 3.2 0.00 0.00 0.00 53 1013.2
20260501233331 16 0 0.0 3.2 0.00 0.00 0.00 53 1013.3
20260501233230 16 0 0.0 1.6 0.00 0.00 0.00 53 1013.3
20260501233130 16 0 0.0 3.2 0.00 0.00 0.00 52 1013.2
20260501233029 16 84 1.6 3.2 0.00 0.00 0.00 52 1013.2
20260501232929 16 0 0.0 6.4 0.00 0.00 0.00 53 1013.1
20260501232829 16 105 1.6 6.4 0.00 0.00 0.00 52 1013.1
20260501232729 16 0 0.0 0.0 0.00 0.00 0.00 53 1013.0
20260501232628 16 0 0.0 0.0 0.00 0.00 0.00 52 1013.1
20260501232528 17 0 0.0 0.0 0.00 0.00 0.00 53 1013.0
20260501232428 17 0 0.0 3.2 0.00 0.00 0.00 53 1013.0
20260501232327 17 0 0.0 3.2 0.00 0.00 0.00 52 1013.1
20260501232227 17 0 0.0 3.2 0.00 0.00 0.00 51 1013.1
20260501232126 17 0 0.0 0.0 0.00 0.00 0.00 51 1013.0
20260501232026 17 0 0.0 1.6 0.00 0.00 0.00 52 1012.9
20260501231926 17 72 0.0 4.8 0.00 0.00 0.00 52 1013.0
20260501231825 17 0 0.0 4.8 0.00 0.00 0.00 50 1012.9
20260501231725 17 0 0.0 3.2 0.00 0.00 0.00 51 1012.9
20260501231625 17 0 0.0 12.9 0.00 0.00 0.00 50 1012.9
20260501231524 17 82 6.4 12.9 0.00 0.00 0.00 51 1013.0
20260501231423 17 0 0.0 0.0 0.00 0.00 0.00 52 1012.9
20260501231323 17 0 0.0 0.0 0.00 0.00 0.00 50 1013.0
20260501231223 17 0 0.0 0.0 0.00 0.00 0.00 52 1013.0
20260501231123 17 0 0.0 0.0 0.00 0.00 0.00 51 1012.8
20260501231023 17 0 0.0 0.0 0.00 0.00 0.00 50 1013.0
20260501230922 17 0 0.0 0.0 0.00 0.00 0.00 50 1013.1
20260501230821 17 0 0.0 0.0 0.00 0.00 0.00 50 1013.1
20260501230722 17 0 0.0 0.0 0.00 0.00 0.00 50 1013.0
20260501230621 17 0 0.0 0.0 0.00 0.00 0.00 51 1012.9
20260501230520 17 0 0.0 0.0 0.00 0.00 0.00 51 1012.8
20260501230420 17 0 0.0 0.0 0.00 0.00 0.00 52 1012.8
20260501230319 17 0 0.0 0.0 0.00 0.00 0.00 52 1012.8
20260501230220 17 0 0.0 0.0 0.00 0.00 0.00 52 1012.9
20260501230119 17 0 0.0 0.0 0.00 0.00 0.00 51 1012.9
20260501230019 17 0 0.0 1.6 0.00 0.00 0.00 50 1012.9
20260501225919 17 0 0.0 1.6 0.00 0.00 0.00 51 1012.9
20260501225819 17 76 0.0 1.6 0.00 0.00 0.00 51 1012.9
20260501225719 17 60 0.0 1.6 0.00 0.00 0.00 50 1012.7
20260501225618 17 0 0.0 4.8 0.00 0.00 0.00 49 1012.7
20260501225517 17 0 0.0 4.8 0.00 0.00 0.00 48 1012.8
20260501225418 17 0 0.0 0.0 0.00 0.00 0.00 50 1012.7
20260501225317 17 0 0.0 1.6 0.00 0.00 0.00 50 1012.8
20260501225217 17 0 0.0 3.2 0.00 0.00 0.00 50 1012.8
20260501225118 17 68 0.0 11.3 0.00 0.00 0.00 49 1012.8
20260501225017 17 99 3.2 11.3 0.00 0.00 0.00 48 1012.7
20260501224917 17 82 3.2 6.4 0.00 0.00 0.00 50 1012.8
20260501224816 17 94 1.6 6.4 0.00 0.00 0.00 48 1013.0
20260501224717 17 0 0.0 3.2 0.00 0.00 0.00 49 1012.9
20260501224616 17 0 0.0 0.0 0.00 0.00 0.00 50 1012.9
20260501224516 17 0 0.0 0.0 0.00 0.00 0.00 49 1013.0
20260501224417 17 0 0.0 4.8 0.00 0.00 0.00 49 1013.0
20260501224315 17 177 3.2 4.8 0.00 0.00 0.00 48 1013.0
20260501224215 17 0 0.0 1.6 0.00 0.00 0.00 50 1012.9
20260501224115 17 46 0.0 1.6 0.00 0.00 0.00 48 1013.1
20260501224015 17 0 0.0 1.6 0.00 0.00 0.00 47 1013.1
20260501223914 17 0 0.0 12.9 0.00 0.00 0.00 47 1013.0
20260501223814 17 75 6.4 12.9 0.00 0.00 0.00 46 1013.0
20260501223714 17 70 0.0 6.4 0.00 0.00 0.00 47 1013.0
20260501223614 17 75 1.6 3.2 0.00 0.00 0.00 46 1013.0
20260501223513 17 0 0.0 3.2 0.00 0.00 0.00 48 1012.9
20260501223414 17 82 1.6 3.2 0.00 0.00 0.00 46 1013.0
20260501223313 17 0 0.0 0.0 0.00 0.00 0.00 47 1012.9
20260501223212 17 0 0.0 0.0 0.00 0.00 0.00 51 1013.0
20260501223113 17 0 0.0 0.0 0.00 0.00 0.00 50 1013.0
20260501223013 17 0 0.0 0.0 0.00 0.00 0.00 48 1013.2
20260501222913 17 0 0.0 0.0 0.00 0.00 0.00 47 1012.9
20260501222812 17 0 0.0 0.0 0.00 0.00 0.00 46 1012.9
20260501222708 17 0 0.0 3.2 0.00 0.00 0.00 48 1013.1
20260501222604 17 81 1.6 3.2 0.00 0.00 0.00 48 1013.0
20260501222500 17 76 0.0 4.8 0.00 0.00 0.00 49 1013.1
20260501222359 17 115 1.6 4.8 0.00 0.00 0.00 47 1013.1
20260501222300 17 70 1.6 3.2 0.00 0.00 0.00 46 1013.2
20260501222156 17 0 0.0 3.2 0.00 0.00 0.00 46 1013.0
20260501222056 17 86 0.0 4.8 0.00 0.00 0.00 45 1013.0
20260501221955 18 87 1.6 3.2 0.00 0.00 0.00 46 1012.9
20260501221855 18 0 0.0 3.2 0.00 0.00 0.00 46 1013.1
20260501221755 18 83 1.6 9.7 0.00 0.00 0.00 46 1013.1
20260501221655 18 97 0.0 1.6 0.00 0.00 0.00 47 1013.2
20260501221555 18 0 0.0 0.0 0.00 0.00 0.00 46 1013.1
20260501221454 18 0 0.0 3.2 0.00 0.00 0.00 45 1013.0
20260501221353 18 60 0.0 4.8 0.00 0.00 0.00 44 1013.2
20260501221253 18 355 0.0 3.2 0.00 0.00 0.00 45 1013.2
20260501221153 18 90 1.6 3.2 0.00 0.00 0.00 45 1013.0
20260501221052 18 71 1.6 3.2 0.00 0.00 0.00 47 1013.0
20260501220953 18 79 1.6 1.6 0.00 0.00 0.00 45 1013.1
20260501220853 18 0 0.0 3.2 0.00 0.00 0.00 45 1013.2
20260501220753 18 0 0.0 3.2 0.00 0.00 0.00 46 1013.1
20260501220652 18 0 0.0 3.2 0.00 0.00 0.00 44 1013.0
20260501220552 18 0 0.0 3.2 0.00 0.00 0.00 44 1013.4
20260501220453 18 87 1.6 3.2 0.00 0.00 0.00 47 1013.4
20260501220351 18 0 0.0 0.0 0.00 0.00 0.00 45 1013.3
20260501220251 18 0 0.0 0.0 0.00 0.00 0.00 44 1013.3
20260501220151 18 0 0.0 0.0 0.00 0.00 0.00 45 1013.3
20260501220050 18 0 0.0 3.2 0.00 0.00 0.00 45 1013.6
20260501215950 18 0 0.0 3.2 0.00 0.00 0.00 43 1013.5
20260501215849 18 0 0.0 0.0 0.00 0.00 0.00 44 1013.4
20260501215750 18 0 0.0 1.6 0.00 0.00 0.00 47 1013.5
20260501215649 18 0 0.0 0.0 0.00 0.00 0.00 46 1013.5
20260501215550 18 0 0.0 0.0 0.00 0.00 0.00 44 1013.4
20260501215449 18 0 0.0 0.0 0.00 0.00 0.00 48 1013.5
20260501215349 18 0 0.0 4.8 0.00 0.00 0.00 46 1013.4
20260501215249 18 0 0.0 4.8 0.00 0.00 0.00 45 1013.3
20260501215148 18 95 3.2 4.8 0.00 0.00 0.00 48 1013.4
20260501215049 18 0 0.0 0.0 0.00 0.00 0.00 46 1013.3
20260501214948 18 0 0.0 0.0 0.00 0.00 0.00 46 1013.4
20260501214847 18 0 0.0 0.0 0.00 0.00 0.00 45 1013.4
20260501214747 18 0 0.0 0.0 0.00 0.00 0.00 46 1013.3
20260501214647 18 0 0.0 0.0 0.00 0.00 0.00 46 1013.6
20260501214547 18 0 0.0 0.0 0.00 0.00 0.00 46 1013.4
20260501214447 18 0 0.0 1.6 0.00 0.00 0.00 45 1013.3
20260501214347 18 0 0.0 1.6 0.00 0.00 0.00 47 1013.4
20260501214247 18 0 0.0 6.4 0.00 0.00 0.00 47 1013.3
20260501214146 18 0 0.0 1.6 0.00 0.00 0.00 46 1013.3
20260501214046 18 0 0.0 1.6 0.00 0.00 0.00 45 1013.3
20260501213946 18 85 0.0 1.6 0.00 0.00 0.00 46 1013.3
20260501213846 18 0 0.0 0.0 0.00 0.00 0.00 44 1013.4
20260501213745 18 0 0.0 0.0 0.00 0.00 0.00 47 1013.4
20260501213645 18 0 0.0 1.6 0.00 0.00 0.00 45 1013.5
20260501213545 18 0 0.0 1.6 0.00 0.00 0.00 47 1013.5
20260501213444 18 0 0.0 4.8 0.00 0.00 0.00 45 1013.4
20260501213344 18 66 3.2 11.3 0.00 0.00 0.00 44 1013.4
20260501213244 18 103 3.2 11.3 0.00 0.00 0.00 48 1013.4
20260501213144 18 86 1.6 1.6 0.00 0.00 0.00 46 1013.4
20260501213044 18 0 0.0 0.0 0.00 0.00 0.00 47 1013.2
20260501212943 18 0 0.0 0.0 0.00 0.00 0.00 44 1013.4
20260501212843 18 0 0.0 0.0 0.00 0.00 0.00 47 1013.6
20260501212743 18 0 0.0 0.0 0.00 0.00 0.00 44 1013.5
20260501212643 18 0 0.0 0.0 0.00 0.00 0.00 45 1013.4
20260501212543 18 0 0.0 0.0 0.00 0.00 0.00 45 1013.4
20260501212443 18 0 0.0 0.0 0.00 0.00 0.00 46 1013.4
20260501212342 18 0 0.0 3.2 0.00 0.00 0.00 45 1013.5
20260501212242 18 0 0.0 3.2 0.00 0.00 0.00 44 1013.4
20260501212141 18 0 0.0 6.4 0.00 0.00 0.00 45 1013.5
20260501212041 18 124 3.2 6.4 0.00 0.00 0.00 46 1013.5
20260501211941 18 83 1.6 4.8 0.00 0.00 0.00 44 1013.5
20260501211841 18 90 0.0 1.6 0.00 0.00 0.00 45 1013.6
20260501211741 18 62 0.0 11.3 0.00 0.00 0.00 44 1013.5
20260501211641 18 89 1.6 6.4 0.00 0.00 0.00 44 1013.5
20260501211541 18 70 3.2 6.4 0.00 0.00 0.00 44 1013.6
20260501211441 18 141 1.6 3.2 0.00 0.00 0.00 46 1013.6
20260501211341 18 60 0.0 6.4 0.00 0.00 0.00 46 1013.5
20260501211240 18 95 1.6 4.8 0.00 0.00 0.00 44 1013.5
20260501211140 18 92 3.2 4.8 0.00 0.00 0.00 45 1013.8
20260501211040 18 0 0.0 0.0 0.00 0.00 0.00 43 1013.6
20260501210939 18 0 0.0 4.8 0.00 0.00 0.00 43 1013.7
20260501210838 18 85 1.6 3.2 0.00 0.00 0.00 42 1013.7
20260501210738 18 97 0.0 1.6 0.00 0.00 0.00 45 1013.7
20260501210638 18 0 0.0 0.0 0.00 0.00 0.00 44 1013.9
20260501210537 18 0 0.0 1.6 0.00 0.00 0.00 45 1013.7
20260501210437 18 0 0.0 4.8 0.00 0.00 0.00 42 1013.8
20260501210337 18 82 1.6 3.2 0.00 0.00 0.00 44 1013.7
20260501210237 18 0 0.0 0.0 0.00 0.00 0.00 42 1013.9
20260501210137 18 0 0.0 0.0 0.00 0.00 0.00 43 1013.7
20260501210036 18 0 0.0 0.0 0.00 0.00 0.00 43 1013.7
20260501205936 18 0 0.0 0.0 0.00 0.00 0.00 43 1013.6
20260501205836 18 0 0.0 0.0 0.00 0.00 0.00 44 1013.7
20260501205736 18 0 0.0 1.6 0.00 0.00 0.00 43 1013.7
20260501205636 18 0 0.0 3.2 0.00 0.00 0.00 45 1013.6
20260501205536 18 69 1.6 3.2 0.00 0.00 0.00 44 1013.7
20260501205436 18 89 0.0 1.6 0.00 0.00 0.00 44 1013.8
20260501205335 18 0 0.0 6.4 0.00 0.00 0.00 44 1013.6
20260501205235 18 68 3.2 6.4 0.00 0.00 0.00 41 1013.6
20260501205136 18 0 0.0 4.8 0.00 0.00 0.00 42 1013.7
20260501205035 18 0 0.0 1.6 0.00 0.00 0.00 44 1013.9
20260501204935 18 0 0.0 1.6 0.00 0.00 0.00 43 1013.8
20260501204835 18 0 0.0 1.6 0.00 0.00 0.00 42 1013.8
20260501204734 18 0 0.0 4.8 0.00 0.00 0.00 42 1013.9
20260501204634 18 0 0.0 9.7 0.00 0.00 0.00 42 1013.8
20260501204534 18 73 3.2 9.7 0.00 0.00 0.00 43 1013.9
20260501204434 18 0 0.0 4.8 0.00 0.00 0.00 44 1013.9
20260501204334 18 0 0.0 6.4 0.00 0.00 0.00 46 1013.7
20260501204234 18 92 3.2 6.4 0.00 0.00 0.00 45 1013.9
20260501204133 18 108 4.8 6.4 0.00 0.00 0.00 44 1013.9
20260501204033 18 86 3.2 4.8 0.00 0.00 0.00 46 1013.9
20260501203934 18 0 0.0 3.2 0.00 0.00 0.00 44 1013.9
20260501203833 18 54 0.0 9.7 0.00 0.00 0.00 43 1014.0
20260501203733 18 134 6.4 9.7 0.00 0.00 0.00 42 1013.8
20260501203633 18 87 1.6 4.8 0.00 0.00 0.00 43 1013.8
20260501203532 18 90 1.6 3.2 0.00 0.00 0.00 45 1014.1
20260501203431 18 0 0.0 1.6 0.00 0.00 0.00 42 1014.0
20260501203331 18 0 0.0 9.7 0.00 0.00 0.00 41 1013.9
20260501203232 18 86 6.4 9.7 0.00 0.00 0.00 41 1013.8
20260501203131 18 78 1.6 3.2 0.00 0.00 0.00 43 1014.0
20260501203030 18 0 0.0 0.0 0.00 0.00 0.00 43 1013.8
20260501202931 18 0 0.0 1.6 0.00 0.00 0.00 41 1013.9
20260501202831 18 0 0.0 4.8 0.00 0.00 0.00 44 1013.9
20260501202730 18 0 0.0 4.8 0.00 0.00 0.00 42 1013.9
20260501202631 18 66 0.0 3.2 0.00 0.00 0.00 42 1014.0
20260501202531 18 0 0.0 1.6 0.00 0.00 0.00 44 1014.1
20260501202430 18 84 1.6 1.6 0.00 0.00 0.00 43 1014.1
20260501202330 18 0 0.0 1.6 0.00 0.00 0.00 44 1014.0
20260501202230 18 30 0.0 1.6 0.00 0.00 0.00 44 1014.2
20260501202129 17 0 0.0 0.0 0.00 0.00 0.00 45 1013.8
20260501202030 17 0 0.0 3.2 0.00 0.00 0.00 42 1013.8
20260501201929 17 73 0.0 4.8 0.00 0.00 0.00 43 1013.9
20260501201830 17 59 1.6 4.8 0.00 0.00 0.00 42 1014.1
20260501201729 18 81 0.0 1.6 0.00 0.00 0.00 45 1014.0
20260501201629 18 79 0.0 9.7 0.00 0.00 0.00 43 1014.0
20260501201528 18 82 3.2 9.7 0.00 0.00 0.00 40 1014.0
20260501201429 18 84 3.2 4.8 0.00 0.00 0.00 41 1014.0
20260501201329 18 83 3.2 4.8 0.00 0.00 0.00 43 1014.2
20260501201228 17 113 3.2 4.8 0.00 0.00 0.00 46 1014.2
20260501201128 17 0 0.0 4.8 0.00 0.00 0.00 43 1014.1
20260501201028 17 41 3.2 4.8 0.00 0.00 0.00 42 1014.1
20260501200928 17 0 0.0 1.6 0.00 0.00 0.00 43 1014.3
20260501200828 17 0 0.0 0.0 0.00 0.00 0.00 42 1014.2
20260501200728 17 0 0.0 0.0 0.00 0.00 0.00 40 1014.2
20260501200628 17 0 0.0 3.2 0.00 0.00 0.00 41 1014.2
20260501200527 18 92 1.6 3.2 0.00 0.00 0.00 42 1014.5
20260501200427 18 59 0.0 4.8 0.00 0.00 0.00 41 1014.5
20260501200328 18 82 3.2 4.8 0.00 0.00 0.00 42 1014.4
20260501200227 18 0 0.0 4.8 0.00 0.00 0.00 41 1014.2
20260501200127 18 99 0.0 4.8 0.00 0.00 0.00 44 1014.4
20260501200027 18 67 0.0 4.8 0.00 0.00 0.00 41 1014.4
20260501195926 18 30 3.2 4.8 0.00 0.00 0.00 41 1014.3
20260501195825 18 110 0.0 3.2 0.00 0.00 0.00 41 1014.4
20260501195726 18 68 1.6 4.8 0.00 0.00 0.00 40 1014.3
20260501195626 18 0 0.0 4.8 0.00 0.00 0.00 40 1014.3
20260501195525 18 0 0.0 1.6 0.00 0.00 0.00 40 1014.5
20260501195424 18 32 1.6 1.6 0.00 0.00 0.00 42 1014.4
20260501195324 18 0 0.0 1.6 0.00 0.00 0.00 42 1014.6
20260501195223 18 0 0.0 4.8 0.00 0.00 0.00 40 1014.4
20260501195123 18 0 0.0 3.2 0.00 0.00 0.00 39 1014.6
20260501195023 18 82 1.6 6.4 0.00 0.00 0.00 38 1014.4
20260501194923 18 95 0.0 4.8 0.00 0.00 0.00 44 1014.7
20260501194823 18 0 0.0 4.8 0.00 0.00 0.00 41 1014.7
20260501194723 18 40 3.2 4.8 0.00 0.00 0.00 44 1014.6
20260501194622 18 86 3.2 3.2 0.00 0.00 0.00 40 1014.7
20260501194522 18 61 1.6 3.2 0.00 0.00 0.00 42 1014.6
20260501194421 18 0 0.0 6.4 0.00 0.00 0.00 41 1014.6
20260501194322 18 0 0.0 6.4 0.00 0.00 0.00 39 1014.6
20260501194221 18 0 0.0 0.0 0.00 0.00 0.00 38 1014.6
20260501194121 18 0 0.0 3.2 0.00 0.00 0.00 39 1014.5
20260501194021 18 83 3.2 4.8 0.00 0.00 0.00 38 1014.5
20260501193921 18 95 1.6 3.2 0.00 0.00 0.00 40 1014.8
20260501193821 18 0 0.0 0.0 0.00 0.00 0.00 43 1014.6
20260501193720 18 0 0.0 3.2 0.00 0.00 0.00 42 1014.7
20260501193620 18 0 0.0 3.2 0.00 0.00 0.00 41 1014.8
20260501193519 18 0 0.0 0.0 0.00 0.00 0.00 40 1014.7
20260501193420 18 0 0.0 0.0 0.00 0.00 0.00 41 1014.9
20260501193319 18 0 0.0 1.6 0.00 0.00 0.00 41 1014.8
20260501193218 18 0 0.0 1.6 0.00 0.00 0.00 40 1014.8
20260501193119 18 0 0.0 3.2 0.00 0.00 0.00 40 1014.8
20260501193019 18 0 0.0 4.8 0.00 0.00 0.00 39 1014.8
20260501192919 18 0 0.0 3.2 0.00 0.00 0.00 40 1014.8
20260501192818 18 97 3.2 4.8 0.00 0.00 0.00 39 1014.8
20260501192718 18 0 0.0 4.8 0.00 0.00 0.00 41 1014.9
20260501192618 18 0 0.0 4.8 0.00 0.00 0.00 39 1014.7
20260501192517 18 98 0.0 4.8 0.00 0.00 0.00 40 1015.0
20260501192417 18 68 1.6 4.8 0.00 0.00 0.00 39 1015.0
20260501192317 18 0 0.0 4.8 0.00 0.00 0.00 42 1014.7
20260501192216 18 0 0.0 0.0 0.00 0.00 0.00 41 1015.0
20260501192116 18 0 0.0 6.4 0.00 0.00 0.00 41 1015.0
20260501192016 18 0 0.0 6.4 0.00 0.00 0.00 40 1014.8
20260501191916 18 0 0.0 0.0 0.00 0.00 0.00 38 1015.0
20260501191816 18 0 0.0 0.0 0.00 0.00 0.00 37 1015.0
20260501191715 18 0 0.0 0.0 0.00 0.00 0.00 38 1015.0
20260501191615 18 0 0.0 6.4 0.00 0.00 0.00 41 1015.0
20260501191515 18 0 0.0 6.4 0.00 0.00 0.00 37 1014.8
20260501191415 18 0 0.0 3.2 0.00 0.00 0.00 39 1015.0
20260501191314 18 0 0.0 4.8 0.00 0.00 0.00 37 1015.2
20260501191215 18 0 0.0 3.2 0.00 0.00 0.00 36 1015.0
20260501191115 18 51 0.0 3.2 0.00 0.00 0.00 37 1015.1
20260501191015 18 0 0.0 4.8 0.00 0.00 0.00 38 1015.2
20260501190914 18 0 0.0 4.8 0.00 0.00 0.00 37 1015.0
20260501190814 17 0 0.0 1.6 0.00 0.00 0.00 40 1015.0
20260501190714 17 0 0.0 1.6 0.00 0.00 0.00 39 1015.2
20260501190614 18 0 0.0 3.2 0.00 0.00 0.00 39 1015.1
20260501190514 18 18 1.6 3.2 0.00 0.00 0.00 40 1015.2
20260501190414 17 0 0.0 0.0 0.00 0.00 0.00 39 1015.5
20260501190313 18 0 0.0 3.2 0.00 0.00 0.00 37 1015.3
20260501190213 18 71 3.2 12.9 0.00 0.00 0.00 36 1015.3
20260501190113 18 81 6.4 12.9 0.00 0.00 0.00 35 1015.3
20260501190014 18 115 1.6 6.4 0.00 0.00 0.00 40 1015.3
20260501185913 18 0 0.0 6.4 0.00 0.00 0.00 38 1015.1
20260501185813 18 96 3.2 3.2 0.00 0.00 0.00 42 1015.3
20260501185713 18 83 3.2 6.4 0.00 0.00 0.00 43 1015.4
20260501185613 18 0 0.0 9.7 0.00 0.00 0.00 38 1015.4
20260501185512 17 0 0.0 0.0 0.00 0.00 0.00 42 1015.5
20260501185412 17 0 0.0 1.6 0.00 0.00 0.00 42 1015.3
20260501185313 17 0 0.0 0.0 0.00 0.00 0.00 39 1015.5
20260501185212 17 0 0.0 1.6 0.00 0.00 0.00 38 1015.5
20260501185108 17 0 0.0 1.6 0.00 0.00 0.00 39 1015.5
20260501185004 17 0 0.0 1.6 0.00 0.00 0.00 40 1015.5
20260501184900 17 64 0.0 3.2 0.00 0.00 0.00 39 1015.6
20260501184757 17 96 0.0 1.6 0.00 0.00 0.00 38 1015.5
20260501184658 17 0 0.0 1.6 0.00 0.00 0.00 40 1015.7
20260501184557 17 76 1.6 1.6 0.00 0.00 0.00 41 1015.8
20260501184457 17 0 0.0 11.3 0.00 0.00 0.00 39 1015.6
20260501184357 18 96 1.6 12.9 0.00 0.00 0.00 38 1015.6
20260501184256 18 79 6.4 12.9 0.00 0.00 0.00 36 1015.5
20260501184157 17 0 0.0 1.6 0.00 0.00 0.00 39 1015.6
20260501184055 17 77 0.0 4.8 0.00 0.00 0.00 40 1015.6
20260501183955 17 81 1.6 4.8 0.00 0.00 0.00 39 1015.6
20260501183855 18 0 0.0 3.2 0.00 0.00 0.00 39 1015.6
20260501183755 18 0 0.0 9.7 0.00 0.00 0.00 38 1015.7
20260501183655 18 85 6.4 9.7 0.00 0.00 0.00 37 1015.7
20260501183555 17 77 3.2 6.4 0.00 0.00 0.00 40 1015.8
20260501183455 17 74 3.2 6.4 0.00 0.00 0.00 42 1015.6
20260501183355 17 97 1.6 6.4 0.00 0.00 0.00 39 1015.8
20260501183254 17 96 6.4 11.3 0.00 0.00 0.00 39 1015.8
20260501183154 17 80 4.8 11.3 0.00 0.00 0.00 39 1015.6
20260501183053 17 69 3.2 4.8 0.00 0.00 0.00 40 1015.8
20260501182953 17 0 0.0 0.0 0.00 0.00 0.00 40 1015.7
20260501182853 16 0 0.0 3.2 0.00 0.00 0.00 40 1015.7
20260501182752 16 0 0.0 1.6 0.00 0.00 0.00 43 1015.6
20260501182652 16 0 0.0 3.2 0.00 0.00 0.00 40 1015.9
20260501182553 16 17 1.6 3.2 0.00 0.00 0.00 42 1015.8
20260501182452 16 0 0.0 1.6 0.00 0.00 0.00 41 1016.1
20260501182352 17 49 0.0 3.2 0.00 0.00 0.00 40 1016.0
20260501182251 17 13 3.2 3.2 0.00 0.00 0.00 39 1016.1
20260501182151 17 0 0.0 3.2 0.00 0.00 0.00 38 1016.1
20260501182051 17 94 0.0 3.2 0.00 0.00 0.00 38 1016.1
20260501181950 17 0 0.0 4.8 0.00 0.00 0.00 40 1016.0
20260501181852 17 66 1.6 4.8 0.00 0.00 0.00 38 1016.0
20260501181751 18 0 0.0 9.7 0.00 0.00 0.00 41 1016.0
20260501181650 18 93 6.4 12.9 0.00 0.00 0.00 38 1016.2
20260501181550 17 0 0.0 3.2 0.00 0.00 0.00 40 1016.2
20260501181451 17 68 1.6 3.2 0.00 0.00 0.00 40 1016.1
20260501181350 17 0 0.0 0.0 0.00 0.00 0.00 39 1016.1
20260501181250 17 0 0.0 3.2 0.00 0.00 0.00 41 1016.1
20260501181150 17 0 0.0 3.2 0.00 0.00 0.00 41 1016.1
20260501181050 16 83 3.2 3.2 0.00 0.00 0.00 46 1015.9
20260501180949 17 76 1.6 4.8 0.00 0.00 0.00 43 1016.0
20260501180850 17 78 1.6 4.8 0.00 0.00 0.00 40 1016.1
20260501180749 17 96 1.6 4.8 0.00 0.00 0.00 40 1016.0
20260501180649 17 98 4.8 4.8 0.00 0.00 0.00 39 1016.1
20260501180549 17 0 0.0 3.2 0.00 0.00 0.00 44 1016.1
20260501180448 17 89 1.6 3.2 0.00 0.00 0.00 42 1016.1
20260501180348 16 0 0.0 1.6 0.00 0.00 0.00 39 1016.2
20260501180247 17 0 0.0 11.3 0.00 0.00 0.00 39 1016.0
20260501180148 17 69 6.4 11.3 0.00 0.00 0.00 38 1016.1
20260501180047 17 123 3.2 4.8 0.00 0.00 0.00 43 1016.2
20260501175947 17 0 0.0 1.6 0.00 0.00 0.00 39 1016.1
20260501175847 17 0 0.0 4.8 0.00 0.00 0.00 41 1016.1
20260501175747 17 40 1.6 4.8 0.00 0.00 0.00 41 1016.1
20260501175646 17 50 0.0 1.6 0.00 0.00 0.00 41 1016.1
20260501175546 17 0 0.0 0.0 0.00 0.00 0.00 40 1016.2
20260501175446 17 0 0.0 0.0 0.00 0.00 0.00 38 1016.3
20260501175346 17 0 0.0 0.0 0.00 0.00 0.00 38 1016.4
20260501175245 17 0 0.0 1.6 0.00 0.00 0.00 42 1016.2
20260501175146 16 0 0.0 1.6 0.00 0.00 0.00 41 1016.6
20260501175046 17 0 0.0 3.2 0.00 0.00 0.00 41 1016.3
20260501174945 17 0 0.0 11.3 0.00 0.00 0.00 42 1016.3
20260501174845 17 101 3.2 11.3 0.00 0.00 0.00 40 1016.3
20260501174744 17 107 4.8 6.4 0.00 0.00 0.00 41 1016.5
20260501174645 16 68 0.0 3.2 0.00 0.00 0.00 39 1016.4
20260501174544 17 85 1.6 9.7 0.00 0.00 0.00 38 1016.5
20260501174444 17 119 6.4 9.7 0.00 0.00 0.00 39 1016.3
20260501174343 16 75 1.6 4.8 0.00 0.00 0.00 44 1016.5
20260501174244 17 90 3.2 9.7 0.00 0.00 0.00 40 1016.4
20260501174143 17 73 1.6 9.7 0.00 0.00 0.00 37 1016.3
20260501174042 17 98 4.8 6.4 0.00 0.00 0.00 40 1016.3
20260501173942 17 100 4.8 9.7 0.00 0.00 0.00 43 1016.4
20260501173842 17 105 3.2 9.7 0.00 0.00 0.00 39 1016.4
20260501173742 17 0 0.0 3.2 0.00 0.00 0.00 39 1016.4
20260501173641 16 0 0.0 3.2 0.00 0.00 0.00 42 1016.4
20260501173540 16 0 0.0 4.8 0.00 0.00 0.00 47 1016.2
20260501173441 17 0 0.0 4.8 0.00 0.00 0.00 43 1016.5
20260501173339 16 0 0.0 3.2 0.00 0.00 0.00 42 1016.2
20260501173239 16 0 0.0 4.8 0.00 0.00 0.00 42 1016.2
20260501173139 16 22 1.6 3.2 0.00 0.00 0.00 42 1016.4
20260501173039 16 0 0.0 0.0 0.00 0.00 0.00 41 1016.3
20260501172939 16 0 0.0 4.8 0.00 0.00 0.00 43 1016.7
20260501172839 16 60 1.6 9.7 0.00 0.00 0.00 40 1016.5
20260501172739 17 87 3.2 9.7 0.00 0.00 0.00 39 1016.5
20260501172639 16 76 3.2 4.8 0.00 0.00 0.00 40 1016.6
20260501172539 16 0 0.0 3.2 0.00 0.00 0.00 40 1016.6
20260501172438 16 118 0.0 1.6 0.00 0.00 0.00 42 1016.6
20260501172338 16 0 0.0 1.6 0.00 0.00 0.00 40 1016.6
20260501172238 16 69 0.0 9.7 0.00 0.00 0.00 40 1016.6
20260501172138 17 81 1.6 12.9 0.00 0.00 0.00 39 1016.5
20260501172037 16 112 4.8 6.4 0.00 0.00 0.00 44 1016.6
20260501171937 16 82 0.0 9.7 0.00 0.00 0.00 42 1016.5
20260501171836 16 91 3.2 9.7 0.00 0.00 0.00 41 1016.8
20260501171737 16 0 0.0 3.2 0.00 0.00 0.00 40 1016.8
20260501171636 16 0 0.0 3.2 0.00 0.00 0.00 40 1016.8
20260501171536 16 0 0.0 0.0 0.00 0.00 0.00 40 1016.6
20260501171436 16 0 0.0 0.0 0.00 0.00 0.00 43 1016.6
20260501171336 16 0 0.0 1.6 0.00 0.00 0.00 38 1016.7
20260501171236 16 0 0.0 3.2 0.00 0.00 0.00 41 1016.7
20260501171135 17 42 3.2 3.2 0.00 0.00 0.00 41 1016.8
20260501171036 16 0 0.0 0.0 0.00 0.00 0.00 42 1016.7
20260501170935 16 0 0.0 3.2 0.00 0.00 0.00 42 1016.7
20260501170835 16 91 0.0 3.2 0.00 0.00 0.00 42 1016.7
20260501170735 16 0 0.0 4.8 0.00 0.00 0.00 45 1016.7
20260501170635 16 84 1.6 9.7 0.00 0.00 0.00 40 1016.7
20260501170534 15 0 0.0 0.0 0.00 0.00 0.00 43 1016.7
20260501170434 16 0 0.0 0.0 0.00 0.00 0.00 44 1016.9
20260501170334 16 0 0.0 3.2 0.00 0.00 0.00 43 1016.8
20260501170234 16 33 1.6 3.2 0.00 0.00 0.00 46 1017.0
20260501170134 16 0 0.0 3.2 0.00 0.00 0.00 41 1016.8
20260501170034 16 82 1.6 3.2 0.00 0.00 0.00 41 1016.8
20260501165934 16 68 0.0 6.4 0.00 0.00 0.00 46 1016.7
20260501165834 16 76 3.2 6.4 0.00 0.00 0.00 41 1016.8
20260501165733 16 88 0.0 4.8 0.00 0.00 0.00 40 1017.1
20260501165634 16 86 3.2 6.4 0.00 0.00 0.00 47 1017.0
20260501165532 16 78 0.0 9.7 0.00 0.00 0.00 42 1017.1
20260501165432 16 84 3.2 9.7 0.00 0.00 0.00 38 1017.0
20260501165332 16 87 0.0 1.6 0.00 0.00 0.00 42 1017.1
20260501165231 16 0 0.0 12.9 0.00 0.00 0.00 40 1017.1
20260501165131 16 117 9.7 12.9 0.00 0.00 0.00 39 1017.2
20260501165032 16 0 0.0 4.8 0.00 0.00 0.00 42 1017.3
20260501164931 16 102 1.6 6.4 0.00 0.00 0.00 45 1017.2
20260501164830 16 78 3.2 6.4 0.00 0.00 0.00 41 1017.1
20260501164731 16 0 0.0 3.2 0.00 0.00 0.00 41 1017.3
20260501164629 16 79 1.6 4.8 0.00 0.00 0.00 40 1017.2
20260501164529 16 115 3.2 4.8 0.00 0.00 0.00 42 1017.2
20260501164429 16 69 1.6 3.2 0.00 0.00 0.00 43 1017.2
20260501164329 16 72 1.6 4.8 0.00 0.00 0.00 41 1017.1
20260501164229 16 88 1.6 6.4 0.00 0.00 0.00 40 1017.0
20260501164128 16 103 0.0 3.2 0.00 0.00 0.00 44 1017.2
20260501164029 16 87 0.0 1.6 0.00 0.00 0.00 42 1017.2
20260501163928 16 0 0.0 0.0 0.00 0.00 0.00 40 1017.2
20260501163828 16 0 0.0 4.8 0.00 0.00 0.00 40 1017.2
20260501163727 16 0 0.0 4.8 0.00 0.00 0.00 38 1017.4
20260501163627 16 0 0.0 1.6 0.00 0.00 0.00 41 1017.4
20260501163528 16 93 0.0 4.8 0.00 0.00 0.00 43 1017.2
20260501163427 16 75 3.2 4.8 0.00 0.00 0.00 38 1017.2
20260501163327 16 91 3.2 6.4 0.00 0.00 0.00 43 1017.4
20260501163226 16 89 4.8 6.4 0.00 0.00 0.00 40 1017.4
20260501163126 15 0 0.0 1.6 0.00 0.00 0.00 44 1017.2
20260501163026 15 67 0.0 1.6 0.00 0.00 0.00 41 1017.3
20260501162926 15 0 0.0 0.0 0.00 0.00 0.00 47 1017.4
20260501162826 15 0 0.0 1.6 0.00 0.00 0.00 43 1017.4
20260501162725 15 0 0.0 1.6 0.00 0.00 0.00 44 1017.2
20260501162625 15 35 1.6 1.6 0.00 0.00 0.00 44 1017.4
20260501162525 15 0 0.0 0.0 0.00 0.00 0.00 43 1017.5
20260501162424 15 0 0.0 0.0 0.00 0.00 0.00 46 1017.5
20260501162324 15 0 0.0 3.2 0.00 0.00 0.00 41 1017.3
20260501162224 15 0 0.0 3.2 0.00 0.00 0.00 42 1017.4
20260501162124 15 0 0.0 1.6 0.00 0.00 0.00 42 1017.2
20260501162024 14 0 0.0 3.2 0.00 0.00 0.00 46 1017.2
20260501161923 14 52 1.6 3.2 0.00 0.00 0.00 45 1017.4
20260501161823 14 25 3.2 3.2 0.00 0.00 0.00 45 1017.4
20260501161723 15 39 1.6 6.4 0.00 0.00 0.00 42 1017.7
20260501161624 15 351 4.8 6.4 0.00 0.00 0.00 41 1017.5
20260501161523 15 0 0.0 3.2 0.00 0.00 0.00 41 1017.7
20260501161422 15 99 1.6 6.4 0.00 0.00 0.00 42 1017.7
20260501161322 15 84 3.2 6.4 0.00 0.00 0.00 42 1017.6
20260501161221 15 0 0.0 1.6 0.00 0.00 0.00 42 1017.6
20260501161121 15 34 1.6 1.6 0.00 0.00 0.00 40 1017.5
20260501161021 15 0 0.0 0.0 0.00 0.00 0.00 42 1017.8
20260501160922 15 0 0.0 0.0 0.00 0.00 0.00 43 1017.5
20260501160821 15 0 0.0 0.0 0.00 0.00 0.00 40 1017.8
20260501160722 15 0 0.0 1.6 0.00 0.00 0.00 44 1017.8
20260501160621 15 0 0.0 1.6 0.00 0.00 0.00 39 1017.8
20260501160521 15 0 0.0 0.0 0.00 0.00 0.00 45 1017.7
20260501160421 15 0 0.0 3.2 0.00 0.00 0.00 43 1017.7
20260501160320 15 80 0.0 3.2 0.00 0.00 0.00 41 1017.8
20260501160219 15 71 0.0 6.4 0.00 0.00 0.00 44 1017.8
20260501160119 14 77 0.0 1.6 0.00 0.00 0.00 47 1017.7
20260501160020 14 0 0.0 3.2 0.00 0.00 0.00 46 1017.6
20260501155919 15 86 1.6 9.7 0.00 0.00 0.00 46 1017.7
20260501155819 15 88 4.8 9.7 0.00 0.00 0.00 42 1017.8
20260501155719 15 0 0.0 4.8 0.00 0.00 0.00 42 1017.6
20260501155618 15 93 0.0 4.8 0.00 0.00 0.00 42 1017.6
20260501155519 14 88 0.0 3.2 0.00 0.00 0.00 46 1017.8
20260501155418 14 75 1.6 1.6 0.00 0.00 0.00 41 1018.0
20260501155318 15 0 0.0 3.2 0.00 0.00 0.00 47 1017.8
20260501155217 15 89 1.6 3.2 0.00 0.00 0.00 42 1017.9
20260501155117 15 0 0.0 3.2 0.00 0.00 0.00 45 1018.1
20260501155017 15 94 1.6 3.2 0.00 0.00 0.00 41 1018.1
20260501154918 15 0 0.0 0.0 0.00 0.00 0.00 49 1018.1
20260501154818 15 0 0.0 1.6 0.00 0.00 0.00 43 1018.1
20260501154717 15 0 0.0 1.6 0.00 0.00 0.00 50 1017.8
20260501154616 15 0 0.0 4.8 0.00 0.00 0.00 45 1018.1
20260501154516 15 89 3.2 4.8 0.00 0.00 0.00 40 1018.0
20260501154416 15 82 0.0 1.6 0.00 0.00 0.00 47 1018.0
20260501154316 15 0 0.0 0.0 0.00 0.00 0.00 51 1018.0
20260501154216 14 0 0.0 0.0 0.00 0.00 0.00 45 1018.0
20260501154116 14 0 0.0 0.0 0.00 0.00 0.00 46 1018.0
20260501154016 13 0 0.0 1.6 0.00 0.00 0.00 46 1018.0
20260501153916 13 0 0.0 1.6 0.00 0.00 0.00 47 1018.0
20260501153815 13 0 0.0 1.6 0.00 0.00 0.00 44 1017.9
20260501153716 13 0 0.0 3.2 0.00 0.00 0.00 46 1018.0
20260501153615 13 75 1.6 3.2 0.00 0.00 0.00 46 1018.1
20260501153515 13 109 3.2 3.2 0.00 0.00 0.00 45 1018.2
20260501153415 13 0 0.0 0.0 0.00 0.00 0.00 51 1018.0
20260501153314 13 0 0.0 0.0 0.00 0.00 0.00 54 1018.1
20260501153214 12 0 0.0 0.0 0.00 0.00 0.00 47 1018.1
20260501153114 13 0 0.0 0.0 0.00 0.00 0.00 49 1017.9
20260501153014 13 0 0.0 6.4 0.00 0.00 0.00 46 1018.2
20260501152914 14 96 4.8 6.4 0.00 0.00 0.00 46 1018.1
20260501152813 14 105 3.2 4.8 0.00 0.00 0.00 45 1018.2
20260501152713 13 88 1.6 1.6 0.00 0.00 0.00 51 1018.2
20260501152613 13 0 0.0 0.0 0.00 0.00 0.00 50 1018.3
20260501152513 13 0 0.0 3.2 0.00 0.00 0.00 46 1018.3
20260501152413 13 87 0.0 1.6 0.00 0.00 0.00 51 1018.3
20260501152313 14 0 0.0 3.2 0.00 0.00 0.00 48 1018.3
20260501152213 15 0 0.0 4.8 0.00 0.00 0.00 48 1018.2
20260501152113 14 109 3.2 3.2 0.00 0.00 0.00 46 1018.1
20260501152012 14 91 1.6 1.6 0.00 0.00 0.00 47 1018.1
20260501151912 14 0 0.0 3.2 0.00 0.00 0.00 49 1018.1
20260501151811 14 97 1.6 3.2 0.00 0.00 0.00 46 1018.3
20260501151711 13 0 0.0 1.6 0.00 0.00 0.00 48 1018.1
20260501151612 13 0 0.0 1.6 0.00 0.00 0.00 55 1018.1
20260501151507 13 42 0.0 1.6 0.00 0.00 0.00 52 1018.5
20260501151403 13 0 0.0 0.0 0.00 0.00 0.00 54 1018.3
20260501151302 13 0 0.0 0.0 0.00 0.00 0.00 53 1018.4
20260501151202 13 0 0.0 0.0 0.00 0.00 0.00 51 1018.1
20260501151056 13 0 0.0 0.0 0.00 0.00 0.00 48 1018.4
20260501150955 13 0 0.0 0.0 0.00 0.00 0.00 48 1018.2
20260501150855 13 0 0.0 1.6 0.00 0.00 0.00 47 1018.3
20260501150754 13 0 0.0 0.0 0.00 0.00 0.00 52 1018.3
20260501150654 14 0 0.0 0.0 0.00 0.00 0.00 52 1018.3
20260501150555 13 0 0.0 0.0 0.00 0.00 0.00 52 1018.3
20260501150453 14 0 0.0 0.0 0.00 0.00 0.00 47 1018.3
20260501150354 14 0 0.0 3.2 0.00 0.00 0.00 50 1018.5
20260501150254 14 0 0.0 3.2 0.00 0.00 0.00 47 1018.3
20260501150153 13 0 0.0 0.0 0.00 0.00 0.00 51 1018.4
20260501150053 13 0 0.0 0.0 0.00 0.00 0.00 52 1018.4
20260501145953 13 0 0.0 3.2 0.00 0.00 0.00 48 1018.3
20260501145853 13 63 1.6 3.2 0.00 0.00 0.00 47 1018.4
20260501145753 14 80 0.0 3.2 0.00 0.00 0.00 47 1018.4
20260501145652 14 79 0.0 1.6 0.00 0.00 0.00 50 1018.3
20260501145552 14 0 0.0 1.6 0.00 0.00 0.00 47 1018.3
20260501145451 14 87 1.6 1.6 0.00 0.00 0.00 48 1018.2
20260501145352 13 0 0.0 0.0 0.00 0.00 0.00 49 1018.2
20260501145252 13 0 0.0 0.0 0.00 0.00 0.00 48 1018.2
20260501145152 13 0 0.0 0.0 0.00 0.00 0.00 52 1018.4
20260501145051 13 0 0.0 0.0 0.00 0.00 0.00 48 1018.3
20260501144951 13 0 0.0 0.0 0.00 0.00 0.00 54 1018.4
20260501144851 13 0 0.0 0.0 0.00 0.00 0.00 54 1018.3
20260501144751 12 0 0.0 1.6 0.00 0.00 0.00 49 1018.4
20260501144650 12 82 0.0 1.6 0.00 0.00 0.00 51 1018.4
20260501144550 13 69 0.0 6.4 0.00 0.00 0.00 49 1018.4
20260501144450 13 78 3.2 9.7 0.00 0.00 0.00 49 1018.4
20260501144350 13 77 0.0 3.2 0.00 0.00 0.00 48 1018.4
20260501144251 14 91 0.0 4.8 0.00 0.00 0.00 48 1018.4
20260501144150 14 68 1.6 4.8 0.00 0.00 0.00 45 1018.3
20260501144050 14 0 0.0 0.0 0.00 0.00 0.00 48 1018.2
20260501143951 13 0 0.0 0.0 0.00 0.00 0.00 46 1018.4
20260501143850 13 0 0.0 0.0 0.00 0.00 0.00 45 1018.5
20260501143750 13 0 0.0 1.6 0.00 0.00 0.00 44 1018.3
20260501143650 14 92 0.0 3.2 0.00 0.00 0.00 46 1018.3
20260501143550 14 77 1.6 3.2 0.00 0.00 0.00 43 1018.4
20260501143449 14 74 0.0 3.2 0.00 0.00 0.00 49 1018.3
20260501143348 14 0 0.0 3.2 0.00 0.00 0.00 45 1018.4
20260501143249 13 65 0.0 3.2 0.00 0.00 0.00 43 1018.5
20260501143148 13 0 0.0 0.0 0.00 0.00 0.00 49 1018.4
20260501143048 13 0 0.0 0.0 0.00 0.00 0.00 50 1018.3
20260501142947 13 0 0.0 0.0 0.00 0.00 0.00 46 1018.5
20260501142847 13 0 0.0 0.0 0.00 0.00 0.00 47 1018.5
20260501142748 13 0 0.0 0.0 0.00 0.00 0.00 45 1018.4
20260501142647 13 0 0.0 0.0 0.00 0.00 0.00 45 1018.5